| time (UTC) | temp C | wind direction | speed KPH | gust KPH | rain 1hr cm | rain 24hr cm | rain mn cm | humidity % | barometer mb |
| 20260510140406 | 20 | 76 | 16.1 | 24.1 | 0.00 | 0.00 | 0.00 | 78 | 1009.9 |
| 20260510140307 | 20 | 40 | 16.1 | 24.1 | 0.00 | 0.00 | 0.00 | 78 | 1009.8 |
| 20260510140206 | 20 | 82 | 14.5 | 24.1 | 0.00 | 0.00 | 0.00 | 77 | 1009.8 |
| 20260510140106 | 20 | 68 | 14.5 | 24.1 | 0.00 | 0.00 | 0.00 | 77 | 1009.8 |
| 20260510140013 | 20 | 75 | 14.5 | 24.1 | 0.00 | 0.00 | 0.00 | 77 | 1009.8 |
| 20260510135908 | 20 | 68 | 14.5 | 24.1 | 0.00 | 0.05 | 0.00 | 77 | 1009.9 |
| 20260510135807 | 20 | 74 | 14.5 | 22.5 | 0.00 | 0.05 | 0.00 | 77 | 1009.9 |
| 20260510135707 | 20 | 53 | 14.5 | 22.5 | 0.00 | 0.05 | 0.00 | 77 | 1009.9 |
| 20260510135608 | 20 | 94 | 12.9 | 22.5 | 0.00 | 0.05 | 0.00 | 76 | 1009.9 |
| 20260510135510 | 20 | 79 | 12.9 | 22.5 | 0.00 | 0.05 | 0.00 | 75 | 1010.0 |
| 20260510135409 | 20 | 77 | 12.9 | 20.9 | 0.00 | 0.05 | 0.00 | 75 | 1010.0 |
| 20260510135308 | 20 | 64 | 11.3 | 20.9 | 0.00 | 0.05 | 0.00 | 75 | 1009.9 |
| 20260510135209 | 20 | 62 | 11.3 | 20.9 | 0.00 | 0.05 | 0.00 | 74 | 1010.0 |
| 20260510135011 | 20 | 58 | 9.7 | 20.9 | 0.00 | 0.05 | 0.00 | 74 | 1010.0 |
| 20260510134907 | 20 | 62 | 9.7 | 20.9 | 0.00 | 0.05 | 0.00 | 74 | 1010.0 |
| 20260510134807 | 20 | 41 | 9.7 | 24.1 | 0.00 | 0.05 | 0.00 | 74 | 1010.1 |
| 20260510134707 | 20 | 48 | 9.7 | 24.1 | 0.00 | 0.05 | 0.00 | 75 | 1010.0 |
| 20260510134509 | 20 | 58 | 9.7 | 24.1 | 0.00 | 0.05 | 0.00 | 76 | 1010.1 |
| 20260510134309 | 20 | 80 | 9.7 | 24.1 | 0.00 | 0.05 | 0.00 | 76 | 1010.1 |
| 20260510134207 | 20 | 347 | 11.3 | 24.1 | 0.00 | 0.05 | 0.00 | 76 | 1010.2 |
| 20260510134109 | 20 | 134 | 11.3 | 24.1 | 0.00 | 0.05 | 0.00 | 76 | 1010.2 |
| 20260510134011 | 20 | 85 | 11.3 | 24.1 | 0.00 | 0.05 | 0.00 | 76 | 1010.3 |
| 20260510133908 | 20 | 96 | 11.3 | 24.1 | 0.00 | 0.05 | 0.00 | 76 | 1010.3 |
| 20260510133708 | 20 | 157 | 11.3 | 24.1 | 0.00 | 0.05 | 0.00 | 76 | 1010.3 |
| 20260510133607 | 20 | 104 | 11.3 | 24.1 | 0.00 | 0.05 | 0.00 | 77 | 1010.2 |
| 20260510133408 | 20 | 84 | 11.3 | 24.1 | 0.00 | 0.05 | 0.00 | 78 | 1010.2 |
| 20260510133309 | 20 | 72 | 11.3 | 24.1 | 0.00 | 0.05 | 0.00 | 78 | 1010.3 |
| 20260510133207 | 20 | 94 | 11.3 | 24.1 | 0.00 | 0.05 | 0.00 | 78 | 1010.3 |
| 20260510133108 | 20 | 73 | 12.9 | 24.1 | 0.00 | 0.05 | 0.00 | 78 | 1010.4 |
| 20260510133009 | 20 | 125 | 11.3 | 24.1 | 0.00 | 0.05 | 0.00 | 78 | 1010.4 |
| 20260510132907 | 20 | 117 | 11.3 | 24.1 | 0.00 | 0.05 | 0.00 | 78 | 1010.4 |
| 20260510132610 | 20 | 80 | 9.7 | 17.7 | 0.00 | 0.05 | 0.00 | 77 | 1010.4 |
| 20260510132407 | 20 | 69 | 9.7 | 17.7 | 0.00 | 0.05 | 0.00 | 77 | 1010.4 |
| 20260510132209 | 20 | 66 | 9.7 | 22.5 | 0.00 | 0.05 | 0.00 | 76 | 1010.4 |
| 20260510132009 | 20 | 106 | 9.7 | 22.5 | 0.00 | 0.05 | 0.00 | 76 | 1010.5 |
| 20260510131908 | 20 | 123 | 9.7 | 22.5 | 0.00 | 0.05 | 0.00 | 76 | 1010.5 |
| 20260510131708 | 20 | 91 | 9.7 | 22.5 | 0.00 | 0.05 | 0.00 | 76 | 1010.6 |
| 20260510131610 | 20 | 145 | 9.7 | 22.5 | 0.00 | 0.05 | 0.00 | 75 | 1010.6 |
| 20260510131508 | 20 | 129 | 9.7 | 22.5 | 0.00 | 0.05 | 0.00 | 75 | 1010.6 |
| 20260510131408 | 20 | 107 | 9.7 | 22.5 | 0.00 | 0.05 | 0.00 | 74 | 1010.6 |
| 20260510131308 | 20 | 70 | 8.0 | 20.9 | 0.00 | 0.05 | 0.00 | 74 | 1010.6 |
| 20260510131209 | 20 | 76 | 8.0 | 20.9 | 0.00 | 0.05 | 0.00 | 74 | 1010.5 |
| 20260510131108 | 20 | 110 | 6.4 | 20.9 | 0.00 | 0.05 | 0.00 | 73 | 1010.5 |
| 20260510131011 | 20 | 85 | 6.4 | 20.9 | 0.00 | 0.05 | 0.00 | 73 | 1010.6 |
| 20260510130807 | 21 | 141 | 4.8 | 20.9 | 0.00 | 0.05 | 0.00 | 72 | 1010.8 |
| 20260510130707 | 21 | 95 | 4.8 | 17.7 | 0.00 | 0.05 | 0.00 | 72 | 1010.8 |
| 20260510130607 | 21 | 89 | 3.2 | 17.7 | 0.00 | 0.05 | 0.00 | 73 | 1010.8 |
| 20260510130509 | 21 | 197 | 3.2 | 12.9 | 0.00 | 0.05 | 0.00 | 73 | 1010.8 |
| 20260510130408 | 21 | 160 | 3.2 | 12.9 | 0.00 | 0.05 | 0.00 | 73 | 1010.8 |
| 20260510130307 | 21 | 114 | 3.2 | 12.9 | 0.00 | 0.05 | 0.00 | 73 | 1010.9 |
| 20260510130209 | 21 | 347 | 3.2 | 11.3 | 0.00 | 0.05 | 0.00 | 73 | 1010.9 |
| 20260510130107 | 21 | 353 | 3.2 | 11.3 | 0.00 | 0.05 | 0.00 | 73 | 1011.0 |
| 20260510130010 | 21 | 339 | 3.2 | 11.3 | 0.00 | 0.05 | 0.00 | 73 | 1011.0 |
| 20260510125907 | 21 | 70 | 4.8 | 17.7 | 0.00 | 0.33 | 0.00 | 73 | 1011.0 |
| 20260510125806 | 21 | 137 | 4.8 | 17.7 | 0.00 | 0.33 | 0.00 | 73 | 1011.0 |
| 20260510125707 | 21 | 43 | 4.8 | 17.7 | 0.00 | 0.33 | 0.00 | 73 | 1010.9 |
| 20260510125509 | 21 | 24 | 4.8 | 17.7 | 0.00 | 0.33 | 0.00 | 74 | 1010.9 |
| 20260510125407 | 21 | 83 | 4.8 | 17.7 | 0.00 | 0.33 | 0.00 | 74 | 1010.9 |
| 20260510125307 | 20 | 69 | 6.4 | 17.7 | 0.00 | 0.33 | 0.00 | 74 | 1010.9 |
| 20260510125209 | 20 | 2 | 6.4 | 20.9 | 0.00 | 0.33 | 0.00 | 74 | 1010.9 |
| 20260510125108 | 20 | 54 | 8.0 | 20.9 | 0.00 | 0.33 | 0.00 | 74 | 1010.9 |
| 20260510125009 | 20 | 42 | 8.0 | 20.9 | 0.00 | 0.33 | 0.00 | 74 | 1010.9 |
| 20260510124806 | 20 | 108 | 8.0 | 20.9 | 0.00 | 0.33 | 0.00 | 74 | 1010.9 |
| 20260510124508 | 20 | 123 | 8.0 | 20.9 | 0.00 | 0.33 | 0.00 | 73 | 1011.0 |
| 20260510124406 | 20 | 187 | 6.4 | 20.9 | 0.00 | 0.33 | 0.00 | 73 | 1011.0 |
| 20260510124306 | 20 | 108 | 6.4 | 20.9 | 0.00 | 0.33 | 0.00 | 73 | 1011.0 |
| 20260510124206 | 20 | 116 | 4.8 | 17.7 | 0.00 | 0.33 | 0.00 | 73 | 1011.0 |
| 20260510124106 | 20 | 88 | 4.8 | 16.1 | 0.00 | 0.33 | 0.00 | 73 | 1011.0 |
| 20260510124010 | 20 | 168 | 3.2 | 17.7 | 0.00 | 0.33 | 0.00 | 73 | 1011.0 |
| 20260510123907 | 20 | 107 | 4.8 | 9.7 | 0.00 | 0.33 | 0.00 | 74 | 1010.9 |
| 20260510123808 | 20 | 111 | 4.8 | 14.5 | 0.00 | 0.33 | 0.00 | 74 | 1010.9 |
| 20260510123709 | 20 | 134 | 6.4 | 14.5 | 0.00 | 0.33 | 0.00 | 74 | 1010.9 |
| 20260510123607 | 20 | 166 | 6.4 | 16.1 | 0.00 | 0.33 | 0.00 | 74 | 1011.0 |
| 20260510123407 | 20 | 2 | 6.4 | 17.7 | 0.00 | 0.33 | 0.00 | 75 | 1011.0 |
| 20260510123207 | 20 | 303 | 8.0 | 17.7 | 0.00 | 0.33 | 0.00 | 75 | 1011.1 |
| 20260510123107 | 20 | 23 | 9.7 | 17.7 | 0.00 | 0.33 | 0.00 | 75 | 1011.1 |
| 20260510122907 | 20 | 35 | 11.3 | 19.3 | 0.00 | 0.33 | 0.00 | 75 | 1011.1 |
| 20260510122806 | 20 | 54 | 11.3 | 20.9 | 0.00 | 0.33 | 0.00 | 76 | 1011.1 |
| 20260510122707 | 20 | 55 | 11.3 | 20.9 | 0.00 | 0.33 | 0.00 | 76 | 1011.2 |
| 20260510122607 | 20 | 108 | 12.9 | 20.9 | 0.00 | 0.33 | 0.00 | 76 | 1011.0 |
| 20260510122509 | 20 | 36 | 14.5 | 20.9 | 0.00 | 0.33 | 0.00 | 76 | 1011.2 |
| 20260510122406 | 20 | 61 | 14.5 | 20.9 | 0.00 | 0.33 | 0.00 | 75 | 1011.2 |
| 20260510122307 | 20 | 56 | 14.5 | 20.9 | 0.00 | 0.33 | 0.00 | 75 | 1011.2 |
| 20260510122207 | 20 | 52 | 14.5 | 20.9 | 0.00 | 0.33 | 0.00 | 75 | 1011.2 |
| 20260510122106 | 19 | 98 | 14.5 | 20.9 | 0.00 | 0.33 | 0.00 | 76 | 1011.2 |
| 20260510122010 | 19 | 117 | 14.5 | 20.9 | 0.00 | 0.33 | 0.00 | 76 | 1011.2 |
| 20260510121706 | 19 | 71 | 14.5 | 20.9 | 0.00 | 0.33 | 0.00 | 75 | 1011.2 |
| 20260510121606 | 19 | 64 | 14.5 | 20.9 | 0.00 | 0.33 | 0.00 | 75 | 1011.3 |
| 20260510121509 | 19 | 64 | 14.5 | 20.9 | 0.00 | 0.33 | 0.00 | 75 | 1011.2 |
| 20260510121406 | 19 | 50 | 14.5 | 20.9 | 0.00 | 0.33 | 0.00 | 75 | 1011.2 |
| 20260510121206 | 19 | 82 | 14.5 | 25.7 | 0.00 | 0.33 | 0.00 | 76 | 1011.2 |
| 20260510121107 | 19 | 110 | 14.5 | 25.7 | 0.00 | 0.33 | 0.00 | 76 | 1011.2 |
| 20260510120907 | 19 | 45 | 14.5 | 25.7 | 0.00 | 0.33 | 0.00 | 76 | 1011.2 |
| 20260510120807 | 19 | 52 | 14.5 | 25.7 | 0.00 | 0.33 | 0.00 | 75 | 1011.3 |
| 20260510120707 | 19 | 89 | 14.5 | 25.7 | 0.00 | 0.33 | 0.00 | 75 | 1011.4 |
| 20260510120608 | 19 | 74 | 14.5 | 25.7 | 0.00 | 0.33 | 0.00 | 75 | 1011.2 |
| 20260510120509 | 20 | 62 | 14.5 | 25.7 | 0.00 | 0.33 | 0.00 | 75 | 1011.4 |
| 20260510120307 | 20 | 68 | 14.5 | 20.9 | 0.00 | 0.33 | 0.00 | 75 | 1011.5 |
| 20260510120206 | 20 | 66 | 12.9 | 20.9 | 0.00 | 0.33 | 0.00 | 75 | 1011.5 |
| 20260510120107 | 20 | 84 | 11.3 | 20.9 | 0.00 | 0.33 | 0.00 | 74 | 1011.5 |
| 20260510120012 | 20 | 77 | 11.3 | 20.9 | 0.00 | 0.33 | 0.00 | 74 | 1011.5 |
| 20260510115909 | 20 | 68 | 11.3 | 20.9 | 0.00 | 0.79 | 0.00 | 74 | 1011.5 |
| 20260510115807 | 20 | 69 | 9.7 | 20.9 | 0.00 | 0.79 | 0.00 | 73 | 1011.5 |
| 20260510115708 | 20 | 57 | 9.7 | 19.3 | 0.00 | 0.79 | 0.00 | 73 | 1011.4 |
| 20260510115607 | 20 | 73 | 9.7 | 16.1 | 0.00 | 0.79 | 0.00 | 73 | 1011.5 |
| 20260510115508 | 20 | 83 | 8.0 | 16.1 | 0.00 | 0.79 | 0.00 | 73 | 1011.5 |
| 20260510115408 | 20 | 70 | 8.0 | 16.1 | 0.00 | 0.79 | 0.00 | 73 | 1011.5 |
| 20260510115308 | 20 | 74 | 8.0 | 16.1 | 0.00 | 0.79 | 0.00 | 74 | 1011.5 |
| 20260510115207 | 20 | 60 | 8.0 | 16.1 | 0.00 | 0.79 | 0.00 | 74 | 1011.6 |
| 20260510115107 | 20 | 66 | 8.0 | 16.1 | 0.00 | 0.79 | 0.00 | 74 | 1011.5 |
| 20260510115011 | 20 | 54 | 8.0 | 16.1 | 0.00 | 0.79 | 0.00 | 73 | 1011.5 |
| 20260510114809 | 20 | 58 | 8.0 | 16.1 | 0.00 | 0.79 | 0.00 | 74 | 1011.6 |
| 20260510114707 | 20 | 44 | 8.0 | 16.1 | 0.00 | 0.79 | 0.00 | 74 | 1011.5 |
| 20260510114608 | 20 | 47 | 8.0 | 14.5 | 0.00 | 0.79 | 0.00 | 74 | 1011.6 |
| 20260510114509 | 20 | 60 | 8.0 | 14.5 | 0.00 | 0.79 | 0.00 | 75 | 1011.6 |
| 20260510114408 | 19 | 68 | 8.0 | 16.1 | 0.00 | 0.79 | 0.00 | 75 | 1011.6 |
| 20260510114306 | 19 | 66 | 8.0 | 16.1 | 0.00 | 0.79 | 0.00 | 75 | 1011.6 |
| 20260510114206 | 19 | 68 | 8.0 | 16.1 | 0.00 | 0.79 | 0.00 | 75 | 1011.6 |
| 20260510114107 | 19 | 46 | 9.7 | 16.1 | 0.00 | 0.79 | 0.00 | 75 | 1011.7 |
| 20260510114009 | 19 | 59 | 9.7 | 16.1 | 0.00 | 0.79 | 0.00 | 75 | 1011.6 |
| 20260510113905 | 19 | 69 | 9.7 | 16.1 | 0.00 | 0.79 | 0.00 | 75 | 1011.6 |
| 20260510113808 | 19 | 65 | 11.3 | 16.1 | 0.00 | 0.79 | 0.00 | 75 | 1011.6 |
| 20260510113707 | 19 | 89 | 9.7 | 16.1 | 0.00 | 0.79 | 0.00 | 75 | 1011.7 |
| 20260510113607 | 19 | 78 | 11.3 | 16.1 | 0.00 | 0.79 | 0.00 | 76 | 1011.7 |
| 20260510113509 | 19 | 41 | 11.3 | 16.1 | 0.00 | 0.79 | 0.00 | 75 | 1011.7 |
| 20260510113409 | 19 | 78 | 11.3 | 16.1 | 0.00 | 0.79 | 0.00 | 76 | 1011.7 |
| 20260510113306 | 19 | 87 | 12.9 | 16.1 | 0.00 | 0.79 | 0.00 | 76 | 1011.7 |
| 20260510113206 | 19 | 96 | 12.9 | 16.1 | 0.00 | 0.79 | 0.00 | 76 | 1011.7 |
| 20260510112907 | 18 | 68 | 12.9 | 16.1 | 0.00 | 0.79 | 0.00 | 76 | 1011.7 |
| 20260510112807 | 18 | 107 | 12.9 | 16.1 | 0.00 | 0.79 | 0.00 | 76 | 1011.7 |
| 20260510112707 | 18 | 73 | 12.9 | 16.1 | 0.00 | 0.79 | 0.00 | 76 | 1011.7 |
| 20260510112607 | 18 | 66 | 12.9 | 16.1 | 0.00 | 0.79 | 0.00 | 76 | 1011.7 |
| 20260510112508 | 18 | 78 | 12.9 | 16.1 | 0.00 | 0.79 | 0.00 | 76 | 1011.7 |
| 20260510112406 | 18 | 73 | 11.3 | 16.1 | 0.00 | 0.79 | 0.00 | 76 | 1011.7 |
| 20260510112307 | 18 | 63 | 11.3 | 16.1 | 0.00 | 0.79 | 0.00 | 76 | 1011.8 |
| 20260510112206 | 18 | 64 | 11.3 | 16.1 | 0.00 | 0.79 | 0.00 | 77 | 1011.7 |
| 20260510112010 | 18 | 65 | 11.3 | 16.1 | 0.00 | 0.79 | 0.00 | 78 | 1011.7 |
| 20260510111907 | 18 | 66 | 11.3 | 16.1 | 0.00 | 0.79 | 0.00 | 78 | 1011.8 |
| 20260510111807 | 18 | 94 | 11.3 | 16.1 | 0.00 | 0.79 | 0.00 | 78 | 1011.8 |
| 20260510111507 | 18 | 78 | 11.3 | 16.1 | 0.00 | 0.79 | 0.00 | 78 | 1011.8 |
| 20260510111407 | 18 | 67 | 11.3 | 16.1 | 0.00 | 0.79 | 0.00 | 78 | 1011.8 |
| 20260510111306 | 18 | 44 | 12.9 | 16.1 | 0.00 | 0.79 | 0.00 | 78 | 1011.8 |
| 20260510111107 | 18 | 100 | 12.9 | 17.7 | 0.00 | 0.79 | 0.00 | 78 | 1011.8 |
| 20260510111008 | 18 | 75 | 12.9 | 17.7 | 0.00 | 0.79 | 0.00 | 78 | 1011.8 |
| 20260510110907 | 18 | 41 | 12.9 | 17.7 | 0.00 | 0.79 | 0.00 | 78 | 1011.9 |
| 20260510110807 | 18 | 73 | 12.9 | 17.7 | 0.00 | 0.79 | 0.00 | 78 | 1011.9 |
| 20260510110708 | 18 | 75 | 11.3 | 17.7 | 0.00 | 0.79 | 0.00 | 78 | 1011.9 |
| 20260510110606 | 18 | 69 | 11.3 | 17.7 | 0.00 | 0.79 | 0.00 | 78 | 1011.8 |
| 20260510110306 | 18 | 92 | 11.3 | 17.7 | 0.00 | 0.79 | 0.00 | 78 | 1011.9 |
| 20260510110207 | 18 | 69 | 11.3 | 17.7 | 0.00 | 0.79 | 0.00 | 77 | 1012.0 |
| 20260510105909 | 18 | 71 | 11.3 | 17.7 | 0.00 | 1.09 | 0.00 | 78 | 1012.0 |
| 20260510105806 | 18 | 63 | 11.3 | 17.7 | 0.00 | 1.09 | 0.00 | 78 | 1012.0 |
| 20260510105707 | 18 | 46 | 11.3 | 17.7 | 0.00 | 1.09 | 0.00 | 78 | 1012.0 |
| 20260510105609 | 18 | 77 | 12.9 | 17.7 | 0.00 | 1.09 | 0.00 | 78 | 1012.0 |
| 20260510105508 | 18 | 87 | 12.9 | 17.7 | 0.00 | 1.09 | 0.00 | 78 | 1011.9 |
| 20260510105408 | 18 | 76 | 12.9 | 17.7 | 0.00 | 1.09 | 0.00 | 77 | 1012.0 |
| 20260510105308 | 18 | 70 | 12.9 | 17.7 | 0.00 | 1.09 | 0.00 | 78 | 1012.0 |
| 20260510105206 | 18 | 86 | 12.9 | 16.1 | 0.00 | 1.09 | 0.00 | 77 | 1012.1 |
| 20260510104907 | 18 | 85 | 12.9 | 17.7 | 0.00 | 1.09 | 0.00 | 77 | 1012.1 |
| 20260510104807 | 18 | 77 | 12.9 | 17.7 | 0.00 | 1.09 | 0.00 | 77 | 1012.1 |
| 20260510104607 | 18 | 84 | 12.9 | 17.7 | 0.00 | 1.09 | 0.00 | 77 | 1012.2 |
| 20260510104511 | 18 | 73 | 12.9 | 17.7 | 0.00 | 1.09 | 0.00 | 77 | 1012.1 |
| 20260510104407 | 18 | 77 | 12.9 | 17.7 | 0.00 | 1.09 | 0.00 | 77 | 1012.2 |
| 20260510104307 | 18 | 60 | 12.9 | 17.7 | 0.00 | 1.09 | 0.00 | 77 | 1012.2 |
| 20260510104208 | 18 | 73 | 11.3 | 17.7 | 0.00 | 1.09 | 0.00 | 77 | 1012.2 |
| 20260510104011 | 18 | 74 | 11.3 | 16.1 | 0.00 | 1.09 | 0.00 | 77 | 1012.1 |
| 20260510103909 | 18 | 49 | 11.3 | 16.1 | 0.00 | 1.09 | 0.00 | 77 | 1012.1 |
| 20260510103808 | 18 | 69 | 9.7 | 16.1 | 0.00 | 1.09 | 0.00 | 76 | 1012.2 |
| 20260510103707 | 18 | 35 | 9.7 | 16.1 | 0.00 | 1.09 | 0.00 | 76 | 1012.2 |
| 20260510103608 | 18 | 63 | 8.0 | 16.1 | 0.00 | 1.09 | 0.00 | 75 | 1012.3 |
| 20260510103508 | 18 | 71 | 8.0 | 16.1 | 0.00 | 1.09 | 0.00 | 76 | 1012.2 |
| 20260510103407 | 19 | 61 | 8.0 | 16.1 | 0.00 | 1.09 | 0.00 | 76 | 1012.2 |
| 20260510103307 | 18 | 74 | 8.0 | 14.5 | 0.00 | 1.09 | 0.00 | 76 | 1012.1 |
| 20260510103107 | 18 | 100 | 8.0 | 14.5 | 0.00 | 1.09 | 0.00 | 76 | 1012.1 |
| 20260510103009 | 18 | 20 | 9.7 | 14.5 | 0.00 | 1.09 | 0.00 | 76 | 1012.1 |
| 20260510102908 | 18 | 77 | 9.7 | 14.5 | 0.00 | 1.09 | 0.00 | 77 | 1012.1 |
| 20260510102707 | 18 | 44 | 9.7 | 14.5 | 0.00 | 1.09 | 0.00 | 76 | 1012.2 |
| 20260510102609 | 18 | 60 | 9.7 | 14.5 | 0.00 | 1.09 | 0.00 | 76 | 1012.2 |
| 20260510102507 | 18 | 63 | 9.7 | 14.5 | 0.00 | 1.09 | 0.00 | 76 | 1012.2 |
| 20260510102408 | 18 | 59 | 9.7 | 14.5 | 0.00 | 1.09 | 0.00 | 76 | 1012.2 |
| 20260510102307 | 18 | 52 | 9.7 | 14.5 | 0.00 | 1.09 | 0.00 | 76 | 1012.2 |
| 20260510102207 | 18 | 52 | 9.7 | 14.5 | 0.00 | 1.09 | 0.00 | 76 | 1012.1 |
| 20260510102107 | 18 | 49 | 9.7 | 14.5 | 0.00 | 1.09 | 0.00 | 76 | 1012.1 |
| 20260510102009 | 18 | 68 | 9.7 | 14.5 | 0.00 | 1.09 | 0.00 | 77 | 1012.3 |
| 20260510101707 | 18 | 60 | 11.3 | 16.1 | 0.00 | 1.09 | 0.00 | 76 | 1012.4 |
| 20260510101608 | 18 | 58 | 11.3 | 17.7 | 0.00 | 1.09 | 0.00 | 76 | 1012.3 |
| 20260510101508 | 18 | 56 | 11.3 | 17.7 | 0.00 | 1.09 | 0.00 | 77 | 1012.3 |
| 20260510101408 | 18 | 73 | 11.3 | 17.7 | 0.00 | 1.09 | 0.00 | 77 | 1012.3 |
| 20260510101308 | 18 | 46 | 11.3 | 17.7 | 0.00 | 1.09 | 0.00 | 77 | 1012.3 |
| 20260510101208 | 18 | 61 | 11.3 | 17.7 | 0.00 | 1.09 | 0.00 | 77 | 1012.4 |
| 20260510101107 | 18 | 35 | 11.3 | 17.7 | 0.00 | 1.09 | 0.00 | 77 | 1012.3 |
| 20260510101008 | 18 | 60 | 11.3 | 17.7 | 0.00 | 1.09 | 0.00 | 77 | 1012.3 |
| 20260510100908 | 18 | 46 | 11.3 | 17.7 | 0.00 | 1.09 | 0.00 | 77 | 1012.3 |
| 20260510100808 | 18 | 59 | 12.9 | 17.7 | 0.00 | 1.09 | 0.00 | 77 | 1012.3 |
| 20260510100707 | 18 | 83 | 12.9 | 17.7 | 0.00 | 1.09 | 0.00 | 77 | 1012.4 |
| 20260510100608 | 18 | 60 | 12.9 | 17.7 | 0.00 | 1.09 | 0.00 | 77 | 1012.3 |
| 20260510100507 | 18 | 62 | 12.9 | 17.7 | 0.00 | 1.09 | 0.00 | 77 | 1012.3 |
| 20260510100408 | 18 | 63 | 12.9 | 17.7 | 0.00 | 1.09 | 0.00 | 77 | 1012.3 |
| 20260510100307 | 18 | 39 | 12.9 | 17.7 | 0.00 | 1.09 | 0.00 | 77 | 1012.3 |
| 20260510100207 | 18 | 61 | 11.3 | 17.7 | 0.00 | 1.09 | 0.00 | 77 | 1012.4 |
| 20260510100108 | 18 | 64 | 11.3 | 16.1 | 0.00 | 1.09 | 0.00 | 77 | 1012.4 |
| 20260510100010 | 18 | 44 | 11.3 | 16.1 | 0.00 | 1.09 | 0.00 | 77 | 1012.4 |
| 20260510095809 | 18 | 75 | 11.3 | 16.1 | 0.00 | 1.27 | 0.00 | 77 | 1012.4 |
| 20260510095708 | 18 | 56 | 11.3 | 17.7 | 0.00 | 1.27 | 0.00 | 77 | 1012.4 |
| 20260510095607 | 18 | 52 | 11.3 | 17.7 | 0.00 | 1.27 | 0.00 | 78 | 1012.4 |
| 20260510095407 | 18 | 58 | 11.3 | 17.7 | 0.00 | 1.27 | 0.00 | 78 | 1012.5 |
| 20260510095306 | 18 | 59 | 11.3 | 17.7 | 0.00 | 1.27 | 0.00 | 78 | 1012.4 |
| 20260510095207 | 18 | 46 | 11.3 | 17.7 | 0.00 | 1.27 | 0.00 | 78 | 1012.5 |
| 20260510095108 | 18 | 58 | 11.3 | 17.7 | 0.00 | 1.27 | 0.00 | 79 | 1012.4 |
| 20260510095010 | 18 | 65 | 11.3 | 17.7 | 0.00 | 1.27 | 0.00 | 79 | 1012.5 |
| 20260510094906 | 18 | 28 | 11.3 | 17.7 | 0.00 | 1.27 | 0.00 | 79 | 1012.5 |
| 20260510094808 | 18 | 56 | 11.3 | 17.7 | 0.00 | 1.27 | 0.00 | 80 | 1012.4 |
| 20260510094706 | 18 | 16 | 11.3 | 16.1 | 0.00 | 1.27 | 0.00 | 79 | 1012.5 |
| 20260510094608 | 18 | 48 | 11.3 | 16.1 | 0.00 | 1.27 | 0.00 | 79 | 1012.5 |
| 20260510094510 | 18 | 49 | 9.7 | 16.1 | 0.00 | 1.27 | 0.00 | 79 | 1012.5 |
| 20260510094207 | 18 | 54 | 9.7 | 16.1 | 0.00 | 1.27 | 0.00 | 78 | 1012.5 |
| 20260510094009 | 18 | 52 | 8.0 | 16.1 | 0.00 | 1.27 | 0.00 | 78 | 1012.6 |
| 20260510093906 | 18 | 58 | 6.4 | 16.1 | 0.00 | 1.27 | 0.00 | 77 | 1012.6 |
| 20260510093706 | 18 | 56 | 6.4 | 16.1 | 0.00 | 1.27 | 0.00 | 78 | 1012.6 |
| 20260510093608 | 18 | 44 | 6.4 | 16.1 | 0.00 | 1.27 | 0.00 | 78 | 1012.6 |
| 20260510093509 | 18 | 31 | 6.4 | 16.1 | 0.00 | 1.27 | 0.00 | 78 | 1012.6 |
| 20260510093407 | 18 | 31 | 6.4 | 16.1 | 0.00 | 1.27 | 0.00 | 78 | 1012.6 |
| 20260510093307 | 18 | 46 | 8.0 | 16.1 | 0.00 | 1.27 | 0.00 | 78 | 1012.6 |
| 20260510093207 | 18 | 12 | 8.0 | 16.1 | 0.00 | 1.27 | 0.00 | 79 | 1012.7 |
| 20260510093107 | 18 | 51 | 8.0 | 16.1 | 0.00 | 1.27 | 0.00 | 79 | 1012.6 |
| 20260510093009 | 18 | 62 | 8.0 | 16.1 | 0.00 | 1.27 | 0.00 | 78 | 1012.6 |
| 20260510092907 | 18 | 66 | 8.0 | 16.1 | 0.00 | 1.27 | 0.00 | 78 | 1012.7 |
| 20260510092808 | 18 | 44 | 8.0 | 14.5 | 0.00 | 1.27 | 0.00 | 78 | 1012.7 |
| 20260510092707 | 18 | 56 | 8.0 | 14.5 | 0.00 | 1.27 | 0.00 | 78 | 1012.7 |
| 20260510092609 | 18 | 52 | 8.0 | 14.5 | 0.00 | 1.27 | 0.00 | 78 | 1012.7 |
| 20260510092509 | 18 | 38 | 8.0 | 12.9 | 0.00 | 1.27 | 0.00 | 78 | 1012.7 |
| 20260510092407 | 18 | 46 | 8.0 | 12.9 | 0.00 | 1.27 | 0.00 | 77 | 1012.8 |
| 20260510092308 | 18 | 56 | 6.4 | 12.9 | 0.00 | 1.27 | 0.00 | 77 | 1012.8 |
| 20260510092208 | 18 | 61 | 6.4 | 12.9 | 0.00 | 1.27 | 0.00 | 78 | 1012.7 |
| 20260510092109 | 18 | 42 | 6.4 | 12.9 | 0.00 | 1.27 | 0.00 | 77 | 1012.7 |
| 20260510092010 | 18 | 34 | 6.4 | 12.9 | 0.00 | 1.27 | 0.00 | 77 | 1012.7 |
| 20260510091908 | 18 | 29 | 6.4 | 12.9 | 0.00 | 1.27 | 0.00 | 77 | 1012.7 |
| 20260510091808 | 18 | 54 | 6.4 | 12.9 | 0.00 | 1.27 | 0.00 | 77 | 1012.7 |
| 20260510091707 | 18 | 60 | 6.4 | 12.9 | 0.00 | 1.27 | 0.00 | 77 | 1012.7 |
| 20260510091608 | 18 | 101 | 6.4 | 12.9 | 0.00 | 1.27 | 0.00 | 77 | 1012.7 |
| 20260510091307 | 18 | 68 | 4.8 | 12.9 | 0.00 | 1.27 | 0.00 | 76 | 1012.7 |
| 20260510091207 | 18 | 73 | 4.8 | 11.3 | 0.00 | 1.27 | 0.00 | 77 | 1012.7 |
| 20260510091108 | 18 | 96 | 4.8 | 11.3 | 0.00 | 1.27 | 0.00 | 76 | 1012.7 |
| 20260510091009 | 18 | 60 | 4.8 | 11.3 | 0.00 | 1.27 | 0.00 | 76 | 1012.7 |
| 20260510090909 | 18 | 69 | 4.8 | 9.7 | 0.00 | 1.27 | 0.00 | 76 | 1012.7 |
| 20260510090709 | 18 | 58 | 4.8 | 9.7 | 0.00 | 1.27 | 0.00 | 77 | 1012.7 |
| 20260510090608 | 18 | 42 | 4.8 | 9.7 | 0.00 | 1.27 | 0.00 | 77 | 1012.7 |
| 20260510090509 | 18 | 37 | 4.8 | 9.7 | 0.00 | 1.27 | 0.00 | 77 | 1012.7 |
| 20260510090407 | 18 | 43 | 4.8 | 9.7 | 0.00 | 1.27 | 0.00 | 76 | 1012.7 |
| 20260510090311 | 18 | 69 | 4.8 | 9.7 | 0.00 | 1.27 | 0.00 | 77 | 1012.7 |
| 20260510090210 | 18 | 68 | 4.8 | 9.7 | 0.00 | 1.27 | 0.00 | 76 | 1012.7 |
| 20260510090011 | 18 | 70 | 4.8 | 9.7 | 0.00 | 1.27 | 0.00 | 76 | 1012.7 |
| 20260510085908 | 18 | 56 | 4.8 | 9.7 | 0.00 | 1.75 | 0.00 | 75 | 1012.7 |
| 20260510085808 | 18 | 80 | 4.8 | 9.7 | 0.00 | 1.75 | 0.00 | 75 | 1012.7 |
| 20260510085608 | 18 | 73 | 4.8 | 9.7 | 0.00 | 1.75 | 0.00 | 76 | 1012.6 |
| 20260510085510 | 18 | 75 | 4.8 | 9.7 | 0.00 | 1.75 | 0.00 | 76 | 1012.7 |
| 20260510085407 | 18 | 62 | 4.8 | 9.7 | 0.00 | 1.75 | 0.00 | 76 | 1012.7 |
| 20260510085307 | 18 | 62 | 4.8 | 9.7 | 0.00 | 1.75 | 0.00 | 76 | 1012.7 |
| 20260510085208 | 18 | 63 | 4.8 | 9.7 | 0.00 | 1.75 | 0.00 | 77 | 1012.8 |
| 20260510085105 | 18 | 62 | 4.8 | 9.7 | 0.00 | 1.75 | 0.00 | 76 | 1012.8 |
| 20260510084908 | 18 | 72 | 4.8 | 9.7 | 0.00 | 1.75 | 0.00 | 76 | 1012.9 |
| 20260510084808 | 18 | 97 | 4.8 | 6.4 | 0.00 | 1.75 | 0.00 | 76 | 1012.9 |
| 20260510084707 | 18 | 77 | 4.8 | 6.4 | 0.00 | 1.75 | 0.00 | 78 | 1012.9 |
| 20260510084608 | 18 | 66 | 4.8 | 9.7 | 0.00 | 1.75 | 0.00 | 77 | 1012.9 |
| 20260510084406 | 18 | 83 | 3.2 | 9.7 | 0.00 | 1.75 | 0.00 | 77 | 1012.8 |
| 20260510084308 | 18 | 54 | 3.2 | 9.7 | 0.00 | 1.75 | 0.00 | 77 | 1012.8 |
| 20260510084107 | 18 | 71 | 3.2 | 9.7 | 0.00 | 1.75 | 0.00 | 77 | 1013.0 |
| 20260510084011 | 18 | 73 | 3.2 | 9.7 | 0.00 | 1.75 | 0.00 | 77 | 1012.9 |
| 20260510083907 | 18 | 72 | 3.2 | 9.7 | 0.00 | 1.75 | 0.00 | 77 | 1013.0 |
| 20260510083807 | 18 | 81 | 3.2 | 9.7 | 0.00 | 1.75 | 0.00 | 77 | 1013.0 |
| 20260510083708 | 18 | 72 | 3.2 | 6.4 | 0.00 | 1.75 | 0.00 | 77 | 1013.0 |
| 20260510083608 | 18 | 20 | 3.2 | 6.4 | 0.00 | 1.75 | 0.00 | 77 | 1013.0 |
| 20260510083510 | 18 | 20 | 3.2 | 6.4 | 0.00 | 1.75 | 0.00 | 77 | 1013.0 |
| 20260510083407 | 18 | 18 | 3.2 | 6.4 | 0.00 | 1.75 | 0.00 | 76 | 1013.0 |
| 20260510083308 | 18 | 21 | 3.2 | 6.4 | 0.00 | 1.75 | 0.00 | 76 | 1013.0 |
| 20260510083207 | 18 | 51 | 3.2 | 6.4 | 0.00 | 1.75 | 0.00 | 76 | 1013.0 |
| 20260510082907 | 18 | 75 | 3.2 | 6.4 | 0.00 | 1.75 | 0.00 | 77 | 1012.9 |
| 20260510082807 | 18 | 77 | 3.2 | 6.4 | 0.00 | 1.75 | 0.00 | 77 | 1012.9 |
| 20260510082607 | 18 | 86 | 3.2 | 4.8 | 0.00 | 1.75 | 0.00 | 77 | 1013.0 |
| 20260510082508 | 18 | 86 | 3.2 | 6.4 | 0.00 | 1.75 | 0.00 | 77 | 1012.9 |
| 20260510082308 | 18 | 73 | 3.2 | 6.4 | 0.00 | 1.75 | 0.00 | 77 | 1013.0 |
| 20260510082208 | 18 | 73 | 3.2 | 6.4 | 0.00 | 1.75 | 0.00 | 76 | 1013.0 |
| 20260510082106 | 18 | 73 | 3.2 | 6.4 | 0.00 | 1.75 | 0.00 | 76 | 1013.0 |
| 20260510082010 | 18 | 73 | 4.8 | 6.4 | 0.00 | 1.75 | 0.00 | 76 | 1012.9 |
| 20260510081907 | 18 | 73 | 4.8 | 9.7 | 0.00 | 1.75 | 0.00 | 76 | 1012.9 |
| 20260510081808 | 18 | 73 | 4.8 | 9.7 | 0.00 | 1.75 | 0.00 | 76 | 1012.9 |
| 20260510081609 | 18 | 82 | 3.2 | 9.7 | 0.00 | 1.75 | 0.00 | 76 | 1012.9 |
| 20260510081408 | 18 | 87 | 3.2 | 9.7 | 0.00 | 1.75 | 0.00 | 75 | 1012.8 |
| 20260510081308 | 18 | 112 | 3.2 | 9.7 | 0.00 | 1.75 | 0.00 | 75 | 1012.8 |
| 20260510081207 | 18 | 89 | 3.2 | 9.7 | 0.00 | 1.75 | 0.00 | 75 | 1012.9 |
| 20260510081109 | 18 | 89 | 3.2 | 9.7 | 0.00 | 1.75 | 0.00 | 75 | 1012.8 |
| 20260510080907 | 19 | 91 | 3.2 | 6.4 | 0.00 | 1.75 | 0.00 | 74 | 1012.9 |
| 20260510080707 | 19 | 91 | 3.2 | 6.4 | 0.00 | 1.75 | 0.00 | 73 | 1012.8 |
| 20260510080606 | 19 | 91 | 3.2 | 6.4 | 0.00 | 1.75 | 0.00 | 73 | 1012.9 |
| 20260510080508 | 19 | 102 | 3.2 | 6.4 | 0.00 | 1.75 | 0.00 | 72 | 1012.9 |
| 20260510080406 | 19 | 60 | 3.2 | 6.4 | 0.00 | 1.75 | 0.00 | 73 | 1012.9 |
| 20260510080307 | 19 | 60 | 3.2 | 6.4 | 0.00 | 1.75 | 0.00 | 73 | 1012.9 |
| 20260510080208 | 19 | 131 | 3.2 | 6.4 | 0.00 | 1.75 | 0.00 | 73 | 1012.9 |
| 20260510080108 | 19 | 113 | 3.2 | 6.4 | 0.00 | 1.75 | 0.00 | 73 | 1012.9 |
| 20260510080010 | 19 | 117 | 3.2 | 6.4 | 0.00 | 1.75 | 0.00 | 73 | 1013.0 |
| 20260510075907 | 19 | 117 | 3.2 | 6.4 | 0.00 | 1.96 | 0.00 | 73 | 1013.0 |
| 20260510075805 | 19 | 117 | 3.2 | 6.4 | 0.00 | 1.96 | 0.00 | 73 | 1013.0 |
| 20260510075707 | 19 | 109 | 3.2 | 6.4 | 0.00 | 1.96 | 0.00 | 72 | 1013.0 |
| 20260510075608 | 19 | 158 | 3.2 | 6.4 | 0.00 | 1.96 | 0.00 | 72 | 1013.0 |
| 20260510075508 | 19 | 75 | 3.2 | 6.4 | 0.00 | 1.96 | 0.00 | 72 | 1013.0 |
| 20260510075408 | 19 | 76 | 3.2 | 6.4 | 0.00 | 1.96 | 0.00 | 72 | 1013.0 |
| 20260510075306 | 19 | 106 | 3.2 | 6.4 | 0.00 | 1.96 | 0.00 | 71 | 1013.0 |
| 20260510075207 | 19 | 106 | 3.2 | 6.4 | 0.00 | 1.96 | 0.00 | 71 | 1013.0 |
| 20260510075104 | 19 | 152 | 1.6 | 6.4 | 0.00 | 1.96 | 0.00 | 71 | 1013.0 |
| 20260510075010 | 19 | 108 | 1.6 | 6.4 | 0.00 | 1.96 | 0.00 | 71 | 1013.0 |
| 20260510074909 | 19 | 99 | 1.6 | 4.8 | 0.00 | 1.96 | 0.00 | 71 | 1013.0 |
| 20260510074609 | 19 | 103 | 1.6 | 4.8 | 0.00 | 1.96 | 0.00 | 71 | 1013.0 |
| 20260510074407 | 19 | 103 | 1.6 | 4.8 | 0.00 | 1.96 | 0.00 | 73 | 1013.0 |
| 20260510074309 | 19 | 103 | 0.0 | 4.8 | 0.00 | 1.96 | 0.00 | 73 | 1013.0 |
| 20260510074207 | 19 | 103 | 0.0 | 4.8 | 0.00 | 1.96 | 0.00 | 73 | 1013.0 |
| 20260510074107 | 19 | 268 | 1.6 | 3.2 | 0.00 | 1.96 | 0.00 | 73 | 1013.0 |
| 20260510074010 | 19 | 224 | 1.6 | 3.2 | 0.00 | 1.96 | 0.00 | 73 | 1013.0 |
| 20260510073907 | 19 | 224 | 1.6 | 4.8 | 0.00 | 1.96 | 0.00 | 73 | 1013.0 |
| 20260510073808 | 19 | 224 | 1.6 | 4.8 | 0.00 | 1.96 | 0.00 | 73 | 1013.0 |
| 20260510073707 | 19 | 120 | 1.6 | 4.8 | 0.00 | 1.96 | 0.00 | 73 | 1013.0 |
| 20260510073607 | 19 | 120 | 1.6 | 4.8 | 0.00 | 1.96 | 0.00 | 74 | 1013.1 |
| 20260510073510 | 18 | 120 | 1.6 | 4.8 | 0.00 | 1.96 | 0.00 | 74 | 1013.0 |
| 20260510073407 | 18 | 120 | 1.6 | 4.8 | 0.00 | 1.96 | 0.00 | 74 | 1013.1 |
| 20260510073308 | 18 | 121 | 1.6 | 4.8 | 0.00 | 1.96 | 0.00 | 74 | 1013.1 |
| 20260510073207 | 18 | 121 | 1.6 | 4.8 | 0.00 | 1.96 | 0.00 | 74 | 1013.0 |
| 20260510073107 | 18 | 121 | 1.6 | 4.8 | 0.00 | 1.96 | 0.00 | 74 | 1013.1 |
| 20260510072906 | 18 | 120 | 1.6 | 4.8 | 0.00 | 1.96 | 0.00 | 76 | 1013.1 |
| 20260510072809 | 18 | 121 | 1.6 | 4.8 | 0.00 | 1.96 | 0.00 | 76 | 1013.1 |
| 20260510072708 | 18 | 121 | 1.6 | 4.8 | 0.00 | 1.96 | 0.00 | 76 | 1013.0 |
| 20260510072608 | 18 | 121 | 1.6 | 4.8 | 0.00 | 1.96 | 0.00 | 76 | 1013.0 |
| 20260510072508 | 18 | 121 | 1.6 | 4.8 | 0.00 | 1.96 | 0.00 | 76 | 1013.1 |
| 20260510072407 | 18 | 121 | 1.6 | 4.8 | 0.00 | 1.96 | 0.00 | 76 | 1013.1 |
| 20260510072309 | 18 | 121 | 0.0 | 4.8 | 0.00 | 1.96 | 0.00 | 77 | 1013.0 |
| 20260510072107 | 18 | 106 | 0.0 | 3.2 | 0.00 | 1.96 | 0.00 | 78 | 1013.1 |
| 20260510072009 | 18 | 53 | 0.0 | 3.2 | 0.00 | 1.96 | 0.00 | 79 | 1013.0 |
| 20260510071908 | 18 | 53 | 0.0 | 0.0 | 0.00 | 1.96 | 0.00 | 79 | 1013.0 |
| 20260510071808 | 18 | 53 | 0.0 | 0.0 | 0.00 | 1.96 | 0.00 | 79 | 1013.0 |
| 20260510071607 | 18 | 53 | 0.0 | 3.2 | 0.00 | 1.96 | 0.00 | 80 | 1013.1 |
| 20260510071509 | 18 | 53 | 0.0 | 3.2 | 0.00 | 1.96 | 0.00 | 80 | 1013.0 |
| 20260510071408 | 18 | 53 | 0.0 | 3.2 | 0.00 | 1.96 | 0.00 | 80 | 1013.0 |
| 20260510071307 | 17 | 53 | 0.0 | 3.2 | 0.00 | 1.96 | 0.00 | 80 | 1013.0 |
| 20260510071207 | 17 | 53 | 0.0 | 3.2 | 0.00 | 1.96 | 0.00 | 80 | 1013.0 |
| 20260510071109 | 17 | 53 | 0.0 | 3.2 | 0.00 | 1.96 | 0.00 | 80 | 1013.0 |
| 20260510071010 | 17 | 53 | 0.0 | 3.2 | 0.00 | 1.96 | 0.00 | 81 | 1013.0 |
| 20260510070907 | 17 | 53 | 0.0 | 3.2 | 0.00 | 1.96 | 0.00 | 81 | 1012.9 |
| 20260510070808 | 17 | 53 | 0.0 | 3.2 | 0.00 | 1.96 | 0.00 | 81 | 1012.9 |
| 20260510070706 | 17 | 53 | 0.0 | 1.6 | 0.00 | 1.96 | 0.00 | 81 | 1013.0 |
| 20260510070607 | 17 | 53 | 0.0 | 1.6 | 0.00 | 1.96 | 0.00 | 81 | 1013.0 |
| 20260510070407 | 17 | 53 | 0.0 | 1.6 | 0.00 | 1.96 | 0.00 | 81 | 1012.9 |
| 20260510070309 | 17 | 53 | 0.0 | 1.6 | 0.00 | 1.96 | 0.00 | 82 | 1012.9 |
| 20260510070008 | 17 | 53 | 0.0 | 3.2 | 0.00 | 1.96 | 0.00 | 82 | 1012.9 |
| 20260510065906 | 17 | 53 | 0.0 | 3.2 | 0.00 | 1.96 | 0.00 | 82 | 1012.9 |
| 20260510065507 | 17 | 53 | 0.0 | 3.2 | 0.00 | 1.96 | 0.00 | 82 | 1012.9 |
| 20260510065405 | 17 | 53 | 0.0 | 1.6 | 0.00 | 1.96 | 0.00 | 83 | 1012.8 |
| 20260510065308 | 17 | 53 | 0.0 | 1.6 | 0.00 | 1.96 | 0.00 | 83 | 1012.8 |
| 20260510065206 | 17 | 53 | 0.0 | 1.6 | 0.00 | 1.96 | 0.00 | 83 | 1012.8 |
| 20260510065107 | 17 | 53 | 0.0 | 1.6 | 0.00 | 1.96 | 0.00 | 83 | 1012.8 |
| 20260510065007 | 16 | 53 | 0.0 | 1.6 | 0.00 | 1.96 | 0.00 | 83 | 1012.8 |
| 20260510064908 | 16 | 53 | 0.0 | 3.2 | 0.00 | 1.96 | 0.00 | 83 | 1012.8 |
| 20260510064807 | 16 | 53 | 0.0 | 3.2 | 0.00 | 1.96 | 0.00 | 83 | 1012.8 |
| 20260510064606 | 16 | 53 | 1.6 | 3.2 | 0.00 | 1.96 | 0.00 | 83 | 1012.7 |
| 20260510064408 | 16 | 53 | 1.6 | 6.4 | 0.00 | 1.96 | 0.00 | 83 | 1012.6 |
| 20260510064106 | 16 | 53 | 3.2 | 6.4 | 0.00 | 1.96 | 0.00 | 83 | 1012.6 |
| 20260510064008 | 16 | 53 | 3.2 | 6.4 | 0.00 | 1.96 | 0.00 | 83 | 1012.7 |
| 20260510063906 | 16 | 53 | 3.2 | 9.7 | 0.00 | 1.96 | 0.00 | 83 | 1012.6 |
| 20260510063805 | 16 | 53 | 4.8 | 9.7 | 0.00 | 1.96 | 0.00 | 83 | 1012.6 |
| 20260510063705 | 16 | 53 | 4.8 | 9.7 | 0.00 | 1.96 | 0.00 | 83 | 1012.6 |
| 20260510063407 | 16 | 17 | 4.8 | 11.3 | 0.00 | 1.96 | 0.00 | 84 | 1012.5 |
| 20260510063107 | 16 | 46 | 4.8 | 11.3 | 0.00 | 1.96 | 0.00 | 84 | 1012.5 |
| 20260510063008 | 16 | 65 | 4.8 | 11.3 | 0.00 | 1.96 | 0.00 | 84 | 1012.4 |
| 20260510062805 | 16 | 61 | 4.8 | 11.3 | 0.00 | 1.96 | 0.00 | 84 | 1012.4 |
| 20260510062705 | 16 | 54 | 4.8 | 11.3 | 0.00 | 1.96 | 0.00 | 84 | 1012.5 |
| 20260510062606 | 16 | 54 | 4.8 | 11.3 | 0.00 | 1.96 | 0.00 | 84 | 1012.4 |
| 20260510062510 | 16 | 80 | 4.8 | 11.3 | 0.00 | 1.96 | 0.00 | 84 | 1012.4 |
| 20260510062405 | 16 | 62 | 4.8 | 9.7 | 0.00 | 1.96 | 0.00 | 84 | 1012.3 |
| 20260510062205 | 16 | 50 | 4.8 | 9.7 | 0.00 | 1.96 | 0.00 | 84 | 1012.3 |
| 20260510062105 | 16 | 78 | 4.8 | 9.7 | 0.00 | 1.96 | 0.00 | 84 | 1012.4 |
| 20260510062008 | 16 | 54 | 3.2 | 9.7 | 0.00 | 1.96 | 0.00 | 84 | 1012.4 |
| 20260510061905 | 16 | 54 | 3.2 | 9.7 | 0.00 | 1.96 | 0.00 | 84 | 1012.4 |
| 20260510061805 | 16 | 54 | 3.2 | 9.7 | 0.00 | 1.96 | 0.00 | 84 | 1012.4 |
| 20260510061706 | 16 | 64 | 1.6 | 9.7 | 0.00 | 1.96 | 0.00 | 84 | 1012.4 |
| 20260510061605 | 16 | 47 | 1.6 | 9.7 | 0.00 | 1.96 | 0.00 | 84 | 1012.4 |
| 20260510061509 | 16 | 58 | 1.6 | 9.7 | 0.00 | 1.96 | 0.00 | 84 | 1012.5 |
| 20260510061405 | 16 | 56 | 0.0 | 6.4 | 0.00 | 1.96 | 0.00 | 84 | 1012.4 |
| 20260510061306 | 16 | 80 | 0.0 | 6.4 | 0.00 | 1.96 | 0.00 | 84 | 1012.4 |
| 20260510061206 | 15 | 57 | 0.0 | 3.2 | 0.00 | 1.96 | 0.00 | 84 | 1012.5 |
| 20260510061105 | 15 | 57 | 0.0 | 3.2 | 0.00 | 1.96 | 0.00 | 84 | 1012.4 |
| 20260510061007 | 15 | 98 | 0.0 | 0.0 | 0.00 | 1.96 | 0.00 | 84 | 1012.4 |
| 20260510060906 | 15 | 98 | 0.0 | 0.0 | 0.00 | 1.96 | 0.00 | 84 | 1012.5 |
| 20260510060804 | 15 | 104 | 0.0 | 0.0 | 0.00 | 1.96 | 0.00 | 84 | 1012.5 |
| 20260510060706 | 15 | 104 | 0.0 | 0.0 | 0.00 | 1.96 | 0.00 | 85 | 1012.5 |
| 20260510060605 | 15 | 104 | 0.0 | 0.0 | 0.00 | 1.96 | 0.00 | 85 | 1012.5 |
| 20260510060406 | 15 | 104 | 0.0 | 0.0 | 0.00 | 1.96 | 0.00 | 85 | 1012.5 |
| 20260510060207 | 15 | 227 | 0.0 | 0.0 | 0.00 | 1.96 | 0.00 | 85 | 1012.4 |
| 20260510060107 | 15 | 227 | 0.0 | 0.0 | 0.00 | 1.96 | 0.00 | 85 | 1012.4 |
| 20260510060008 | 15 | 227 | 0.0 | 0.0 | 0.00 | 1.96 | 0.00 | 85 | 1012.4 |
| 20260510055907 | 15 | 227 | 0.0 | 0.0 | 0.00 | 1.96 | 0.00 | 85 | 1012.4 |
| 20260510055806 | 15 | 227 | 0.0 | 0.0 | 0.00 | 1.96 | 0.00 | 85 | 1012.3 |
| 20260510055706 | 15 | 227 | 0.0 | 1.6 | 0.00 | 1.96 | 0.00 | 85 | 1012.3 |
| 20260510055605 | 15 | 227 | 0.0 | 1.6 | 0.00 | 1.96 | 0.00 | 84 | 1012.3 |
| 20260510055506 | 15 | 227 | 0.0 | 1.6 | 0.00 | 1.96 | 0.00 | 84 | 1012.2 |
| 20260510055405 | 15 | 227 | 0.0 | 1.6 | 0.00 | 1.96 | 0.00 | 84 | 1012.3 |
| 20260510055307 | 15 | 227 | 0.0 | 1.6 | 0.00 | 1.96 | 0.00 | 84 | 1012.2 |
| 20260510055206 | 15 | 227 | 0.0 | 1.6 | 0.00 | 1.96 | 0.00 | 84 | 1012.2 |
| 20260510055105 | 15 | 227 | 0.0 | 3.2 | 0.00 | 1.96 | 0.00 | 84 | 1012.1 |
| 20260510055007 | 15 | 227 | 1.6 | 3.2 | 0.00 | 1.96 | 0.00 | 84 | 1012.1 |
| 20260510054905 | 15 | 227 | 1.6 | 3.2 | 0.00 | 1.96 | 0.00 | 84 | 1012.1 |
| 20260510054605 | 15 | 227 | 1.6 | 4.8 | 0.00 | 1.96 | 0.00 | 83 | 1012.0 |
| 20260510054507 | 15 | 227 | 1.6 | 4.8 | 0.00 | 1.96 | 0.00 | 83 | 1012.1 |
| 20260510054105 | 15 | 227 | 1.6 | 8.0 | 0.00 | 1.96 | 0.00 | 82 | 1012.1 |
| 20260510054013 | 15 | 237 | 1.6 | 8.0 | 0.00 | 1.96 | 0.00 | 82 | 1012.2 |
| 20260510053907 | 15 | 230 | 1.6 | 8.0 | 0.00 | 1.96 | 0.00 | 82 | 1012.1 |
| 20260510053806 | 15 | 230 | 1.6 | 8.0 | 0.00 | 1.96 | 0.00 | 82 | 1012.1 |
| 20260510053706 | 15 | 230 | 1.6 | 8.0 | 0.00 | 1.96 | 0.00 | 82 | 1012.1 |
| 20260510053606 | 15 | 235 | 1.6 | 8.0 | 0.00 | 1.96 | 0.00 | 81 | 1012.0 |
| 20260510053506 | 15 | 189 | 0.0 | 8.0 | 0.00 | 1.96 | 0.00 | 81 | 1012.0 |
| 20260510053405 | 15 | 180 | 0.0 | 8.0 | 0.00 | 1.96 | 0.00 | 82 | 1011.9 |
| 20260510053206 | 15 | 260 | 0.0 | 0.0 | 0.00 | 1.96 | 0.00 | 82 | 1011.9 |
| 20260510053105 | 15 | 260 | 0.0 | 0.0 | 0.00 | 1.96 | 0.00 | 83 | 1011.9 |
| 20260510052906 | 15 | 260 | 0.0 | 0.0 | 0.00 | 1.96 | 0.00 | 83 | 1011.9 |
| 20260510052807 | 15 | 260 | 0.0 | 0.0 | 0.00 | 1.96 | 0.00 | 83 | 1011.8 |
| 20260510052706 | 15 | 260 | 0.0 | 0.0 | 0.00 | 1.96 | 0.00 | 83 | 1011.8 |
| 20260510052606 | 15 | 260 | 0.0 | 0.0 | 0.00 | 1.96 | 0.00 | 83 | 1011.7 |
| 20260510052507 | 15 | 260 | 0.0 | 0.0 | 0.00 | 1.96 | 0.00 | 83 | 1011.7 |
| 20260510052405 | 15 | 260 | 0.0 | 0.0 | 0.00 | 1.96 | 0.00 | 83 | 1011.7 |
| 20260510052307 | 15 | 260 | 0.0 | 0.0 | 0.00 | 1.96 | 0.00 | 83 | 1011.7 |
| 20260510052207 | 15 | 260 | 0.0 | 0.0 | 0.00 | 1.96 | 0.00 | 83 | 1011.7 |
| 20260510052106 | 15 | 260 | 0.0 | 0.0 | 0.00 | 1.96 | 0.00 | 83 | 1011.7 |
| 20260510052008 | 15 | 260 | 0.0 | 0.0 | 0.00 | 1.96 | 0.00 | 83 | 1011.8 |
| 20260510051906 | 15 | 260 | 0.0 | 0.0 | 0.00 | 1.96 | 0.00 | 83 | 1011.7 |
| 20260510051805 | 15 | 260 | 0.0 | 0.0 | 0.00 | 1.96 | 0.00 | 83 | 1011.7 |
| 20260510051605 | 15 | 260 | 0.0 | 0.0 | 0.00 | 1.96 | 0.00 | 83 | 1011.6 |
| 20260510051507 | 15 | 260 | 0.0 | 0.0 | 0.00 | 1.96 | 0.00 | 83 | 1011.6 |
| 20260510051407 | 15 | 260 | 0.0 | 0.0 | 0.00 | 1.96 | 0.00 | 82 | 1011.7 |
| 20260510051208 | 15 | 260 | 0.0 | 0.0 | 0.00 | 1.96 | 0.00 | 82 | 1011.7 |
| 20260510051008 | 15 | 260 | 0.0 | 0.0 | 0.00 | 1.96 | 0.00 | 82 | 1011.6 |
| 20260510050807 | 15 | 260 | 0.0 | 0.0 | 0.00 | 1.96 | 0.00 | 82 | 1011.5 |
| 20260510050705 | 15 | 260 | 0.0 | 0.0 | 0.00 | 1.96 | 0.00 | 82 | 1011.6 |
| 20260510050606 | 15 | 260 | 0.0 | 0.0 | 0.00 | 1.96 | 0.00 | 82 | 1011.5 |
| 20260510050506 | 15 | 260 | 0.0 | 0.0 | 0.00 | 1.96 | 0.00 | 82 | 1011.6 |
| 20260510050306 | 15 | 260 | 0.0 | 0.0 | 0.00 | 1.96 | 0.00 | 82 | 1011.5 |
| 20260510050205 | 15 | 260 | 0.0 | 0.0 | 0.00 | 1.96 | 0.00 | 82 | 1011.6 |
| 20260510050106 | 15 | 260 | 0.0 | 0.0 | 0.00 | 1.96 | 0.00 | 82 | 1011.6 |
| 20260510050008 | 15 | 260 | 0.0 | 0.0 | 0.00 | 1.96 | 0.00 | 82 | 1011.6 |
| 20260510045906 | 15 | 260 | 0.0 | 0.0 | 0.00 | 1.96 | 0.00 | 82 | 1011.6 |
| 20260510045806 | 16 | 260 | 0.0 | 0.0 | 0.00 | 1.96 | 0.00 | 82 | 1011.6 |
| 20260510045306 | 16 | 260 | 0.0 | 0.0 | 0.00 | 1.96 | 0.00 | 82 | 1011.6 |
| 20260510045205 | 16 | 260 | 0.0 | 0.0 | 0.00 | 1.96 | 0.00 | 81 | 1011.7 |
| 20260510044906 | 16 | 260 | 0.0 | 0.0 | 0.00 | 1.96 | 0.00 | 81 | 1011.6 |
| 20260510044805 | 16 | 260 | 0.0 | 0.0 | 0.00 | 1.96 | 0.00 | 81 | 1011.7 |
| 20260510044705 | 16 | 260 | 0.0 | 0.0 | 0.00 | 1.96 | 0.00 | 81 | 1011.6 |
| 20260510044607 | 16 | 260 | 0.0 | 0.0 | 0.00 | 1.96 | 0.00 | 81 | 1011.7 |
| 20260510044507 | 16 | 260 | 0.0 | 0.0 | 0.00 | 1.96 | 0.00 | 82 | 1011.7 |
| 20260510044305 | 16 | 260 | 0.0 | 0.0 | 0.00 | 1.96 | 0.00 | 82 | 1011.7 |
| 20260510044205 | 16 | 260 | 0.0 | 0.0 | 0.00 | 1.96 | 0.00 | 82 | 1011.7 |
| 20260510044106 | 16 | 260 | 0.0 | 0.0 | 0.00 | 1.96 | 0.00 | 82 | 1011.7 |
| 20260510043905 | 16 | 260 | 0.0 | 0.0 | 0.00 | 1.96 | 0.00 | 82 | 1011.7 |
| 20260510043806 | 16 | 260 | 0.0 | 0.0 | 0.00 | 1.96 | 0.00 | 82 | 1011.7 |
| 20260510043606 | 16 | 260 | 0.0 | 0.0 | 0.00 | 1.96 | 0.00 | 82 | 1011.6 |
| 20260510043507 | 16 | 260 | 0.0 | 0.0 | 0.00 | 1.96 | 0.00 | 82 | 1011.7 |
| 20260510043405 | 16 | 260 | 0.0 | 0.0 | 0.00 | 1.96 | 0.00 | 82 | 1011.7 |
| 20260510043206 | 16 | 260 | 0.0 | 0.0 | 0.00 | 1.96 | 0.00 | 82 | 1011.7 |
| 20260510043106 | 16 | 260 | 0.0 | 0.0 | 0.00 | 1.96 | 0.00 | 82 | 1011.8 |
| 20260510043010 | 16 | 260 | 0.0 | 0.0 | 0.00 | 1.96 | 0.00 | 82 | 1011.7 |
| 20260510042906 | 16 | 260 | 0.0 | 0.0 | 0.00 | 1.96 | 0.00 | 83 | 1011.7 |
| 20260510042805 | 16 | 260 | 0.0 | 0.0 | 0.00 | 1.96 | 0.00 | 83 | 1011.7 |
| 20260510042706 | 16 | 260 | 0.0 | 0.0 | 0.00 | 1.96 | 0.00 | 83 | 1011.7 |
| 20260510042508 | 16 | 260 | 0.0 | 0.0 | 0.00 | 1.96 | 0.00 | 83 | 1011.7 |
| 20260510042407 | 16 | 260 | 0.0 | 0.0 | 0.00 | 1.96 | 0.00 | 83 | 1011.8 |
| 20260510042307 | 16 | 260 | 0.0 | 0.0 | 0.00 | 1.96 | 0.00 | 83 | 1011.7 |
| 20260510042206 | 16 | 260 | 0.0 | 0.0 | 0.00 | 1.96 | 0.00 | 83 | 1011.8 |
| 20260510042107 | 16 | 260 | 0.0 | 0.0 | 0.00 | 1.96 | 0.00 | 83 | 1011.7 |
| 20260510042007 | 16 | 260 | 0.0 | 0.0 | 0.00 | 1.96 | 0.00 | 83 | 1011.7 |
| 20260510041905 | 16 | 260 | 0.0 | 0.0 | 0.00 | 1.96 | 0.00 | 83 | 1011.8 |
| 20260510041807 | 15 | 260 | 0.0 | 0.0 | 0.00 | 1.96 | 0.00 | 83 | 1011.6 |
| 20260510041705 | 15 | 260 | 0.0 | 0.0 | 0.00 | 1.96 | 0.00 | 84 | 1011.7 |
| 20260510041606 | 15 | 260 | 0.0 | 0.0 | 0.00 | 1.96 | 0.00 | 84 | 1011.7 |
| 20260510041507 | 15 | 260 | 0.0 | 0.0 | 0.00 | 1.96 | 0.00 | 84 | 1011.6 |
| 20260510041406 | 15 | 260 | 0.0 | 0.0 | 0.00 | 1.96 | 0.00 | 84 | 1011.6 |
| 20260510041305 | 15 | 260 | 0.0 | 0.0 | 0.00 | 1.96 | 0.00 | 84 | 1011.6 |
| 20260510041205 | 15 | 260 | 0.0 | 0.0 | 0.00 | 1.96 | 0.00 | 84 | 1011.6 |
| 20260510041008 | 15 | 260 | 0.0 | 3.2 | 0.00 | 1.96 | 0.00 | 84 | 1011.6 |
| 20260510040707 | 15 | 260 | 0.0 | 3.2 | 0.00 | 1.96 | 0.00 | 84 | 1011.6 |
| 20260510040606 | 15 | 260 | 0.0 | 3.2 | 0.00 | 1.96 | 0.00 | 84 | 1011.7 |
| 20260510040508 | 15 | 260 | 0.0 | 3.2 | 0.00 | 1.96 | 0.00 | 84 | 1011.6 |
| 20260510040305 | 15 | 260 | 0.0 | 3.2 | 0.00 | 1.96 | 0.00 | 84 | 1011.5 |
| 20260510040205 | 15 | 260 | 0.0 | 3.2 | 0.00 | 1.96 | 0.00 | 84 | 1011.6 |
| 20260510040009 | 15 | 260 | 0.0 | 3.2 | 0.00 | 1.96 | 0.00 | 84 | 1011.6 |
| 20260510035806 | 15 | 260 | 0.0 | 3.2 | 0.00 | 1.96 | 0.00 | 85 | 1011.6 |
| 20260510035707 | 15 | 260 | 1.6 | 3.2 | 0.00 | 1.96 | 0.00 | 85 | 1011.7 |
| 20260510035608 | 15 | 260 | 1.6 | 3.2 | 0.00 | 1.96 | 0.00 | 85 | 1011.7 |
| 20260510035508 | 15 | 260 | 1.6 | 3.2 | 0.00 | 1.96 | 0.00 | 85 | 1011.6 |
| 20260510035306 | 15 | 260 | 1.6 | 3.2 | 0.00 | 1.96 | 0.00 | 85 | 1011.6 |
| 20260510035106 | 15 | 260 | 1.6 | 3.2 | 0.00 | 1.96 | 0.00 | 85 | 1011.5 |
| 20260510035010 | 15 | 260 | 0.0 | 3.2 | 0.00 | 1.96 | 0.00 | 85 | 1011.5 |
| 20260510034908 | 15 | 260 | 0.0 | 3.2 | 0.00 | 1.96 | 0.00 | 85 | 1011.5 |
| 20260510034806 | 15 | 260 | 0.0 | 3.2 | 0.00 | 1.96 | 0.00 | 85 | 1011.5 |
| 20260510034706 | 15 | 260 | 0.0 | 3.2 | 0.00 | 1.96 | 0.00 | 85 | 1011.6 |
| 20260510034606 | 15 | 260 | 0.0 | 1.6 | 0.00 | 1.96 | 0.00 | 85 | 1011.5 |
| 20260510034508 | 15 | 260 | 0.0 | 1.6 | 0.00 | 1.96 | 0.00 | 85 | 1011.5 |
| 20260510034406 | 15 | 260 | 0.0 | 1.6 | 0.00 | 1.96 | 0.00 | 85 | 1011.5 |
| 20260510034306 | 15 | 260 | 0.0 | 1.6 | 0.00 | 1.96 | 0.00 | 85 | 1011.4 |
| 20260510034206 | 15 | 260 | 0.0 | 1.6 | 0.00 | 1.96 | 0.00 | 85 | 1011.5 |
| 20260510034106 | 15 | 260 | 0.0 | 1.6 | 0.00 | 1.96 | 0.00 | 85 | 1011.5 |
| 20260510034008 | 15 | 260 | 0.0 | 1.6 | 0.00 | 1.96 | 0.00 | 85 | 1011.5 |
| 20260510033908 | 15 | 260 | 1.6 | 4.8 | 0.00 | 1.96 | 0.00 | 85 | 1011.5 |
| 20260510033806 | 15 | 260 | 1.6 | 4.8 | 0.00 | 1.96 | 0.00 | 85 | 1011.5 |
| 20260510033706 | 15 | 260 | 1.6 | 4.8 | 0.00 | 1.96 | 0.00 | 85 | 1011.4 |
| 20260510033606 | 15 | 260 | 1.6 | 4.8 | 0.00 | 1.96 | 0.00 | 85 | 1011.4 |
| 20260510033511 | 15 | 260 | 1.6 | 4.8 | 0.00 | 1.96 | 0.00 | 85 | 1011.4 |
| 20260510033307 | 15 | 260 | 1.6 | 4.8 | 0.00 | 1.96 | 0.00 | 85 | 1011.4 |
| 20260510033206 | 15 | 260 | 1.6 | 4.8 | 0.00 | 1.96 | 0.00 | 85 | 1011.4 |
| 20260510033108 | 15 | 260 | 1.6 | 4.8 | 0.00 | 1.96 | 0.00 | 85 | 1011.4 |
| 20260510033009 | 15 | 260 | 0.0 | 4.8 | 0.00 | 1.96 | 0.00 | 85 | 1011.4 |
| 20260510032806 | 15 | 260 | 0.0 | 0.0 | 0.00 | 1.96 | 0.00 | 85 | 1011.4 |
| 20260510032707 | 15 | 260 | 0.0 | 0.0 | 0.00 | 1.96 | 0.00 | 85 | 1011.4 |
| 20260510032606 | 15 | 260 | 0.0 | 0.0 | 0.00 | 1.96 | 0.00 | 85 | 1011.4 |
| 20260510032406 | 15 | 260 | 0.0 | 0.0 | 0.00 | 1.96 | 0.00 | 85 | 1011.5 |
| 20260510032307 | 15 | 260 | 0.0 | 0.0 | 0.00 | 1.96 | 0.00 | 85 | 1011.4 |
| 20260510032206 | 15 | 260 | 0.0 | 0.0 | 0.00 | 1.96 | 0.00 | 85 | 1011.4 |
| 20260510032106 | 15 | 260 | 0.0 | 0.0 | 0.00 | 1.96 | 0.00 | 85 | 1011.4 |
| 20260510032008 | 15 | 260 | 0.0 | 0.0 | 0.00 | 1.96 | 0.00 | 85 | 1011.4 |
| 20260510031906 | 15 | 260 | 0.0 | 0.0 | 0.00 | 1.96 | 0.00 | 85 | 1011.4 |
| 20260510031706 | 15 | 260 | 0.0 | 0.0 | 0.00 | 1.96 | 0.00 | 85 | 1011.5 |
| 20260510031606 | 15 | 260 | 0.0 | 0.0 | 0.00 | 1.96 | 0.00 | 85 | 1011.5 |
| 20260510031508 | 15 | 260 | 0.0 | 0.0 | 0.00 | 1.96 | 0.00 | 85 | 1011.3 |
| 20260510031407 | 15 | 260 | 0.0 | 0.0 | 0.00 | 1.96 | 0.00 | 85 | 1011.5 |
| 20260510031307 | 15 | 260 | 0.0 | 0.0 | 0.00 | 1.96 | 0.00 | 85 | 1011.5 |
| 20260510031207 | 15 | 260 | 0.0 | 0.0 | 0.00 | 1.96 | 0.00 | 84 | 1011.4 |
| 20260510031106 | 15 | 260 | 0.0 | 0.0 | 0.00 | 1.96 | 0.00 | 85 | 1011.4 |
| 20260510031009 | 15 | 260 | 0.0 | 0.0 | 0.00 | 1.96 | 0.00 | 85 | 1011.4 |
| 20260510030906 | 15 | 260 | 0.0 | 0.0 | 0.00 | 1.96 | 0.00 | 85 | 1011.4 |
| 20260510030806 | 15 | 260 | 0.0 | 0.0 | 0.00 | 1.96 | 0.00 | 85 | 1011.4 |
| 20260510030706 | 15 | 260 | 0.0 | 0.0 | 0.00 | 1.96 | 0.00 | 85 | 1011.4 |
| 20260510030606 | 15 | 260 | 0.0 | 0.0 | 0.00 | 1.96 | 0.00 | 85 | 1011.4 |
| 20260510030510 | 15 | 260 | 0.0 | 0.0 | 0.00 | 1.96 | 0.00 | 85 | 1011.3 |
| 20260510030406 | 15 | 260 | 0.0 | 0.0 | 0.00 | 1.96 | 0.00 | 85 | 1011.4 |
| 20260510030307 | 15 | 260 | 0.0 | 0.0 | 0.00 | 1.96 | 0.00 | 85 | 1011.4 |
| 20260510030207 | 15 | 260 | 0.0 | 0.0 | 0.00 | 1.96 | 0.00 | 85 | 1011.4 |
| 20260510030107 | 15 | 260 | 0.0 | 0.0 | 0.00 | 1.96 | 0.00 | 85 | 1011.4 |
| 20260510030009 | 15 | 260 | 0.0 | 1.6 | 0.00 | 1.96 | 0.00 | 85 | 1011.4 |
| 20260510025806 | 15 | 260 | 0.0 | 1.6 | 0.00 | 1.96 | 0.00 | 85 | 1011.3 |
| 20260510025605 | 15 | 260 | 0.0 | 1.6 | 0.00 | 1.96 | 0.00 | 86 | 1011.4 |
| 20260510025507 | 15 | 260 | 0.0 | 1.6 | 0.00 | 1.96 | 0.00 | 86 | 1011.4 |
| 20260510025406 | 15 | 260 | 0.0 | 1.6 | 0.00 | 1.96 | 0.00 | 86 | 1011.4 |
| 20260510025306 | 15 | 260 | 0.0 | 1.6 | 0.00 | 1.96 | 0.00 | 86 | 1011.4 |
| 20260510025206 | 15 | 260 | 0.0 | 1.6 | 0.00 | 1.96 | 0.00 | 86 | 1011.4 |
| 20260510025009 | 15 | 260 | 0.0 | 0.0 | 0.00 | 1.96 | 0.00 | 87 | 1011.4 |
| 20260510024805 | 15 | 260 | 0.0 | 0.0 | 0.00 | 1.96 | 0.00 | 87 | 1011.4 |
| 20260510024705 | 15 | 260 | 0.0 | 0.0 | 0.00 | 1.96 | 0.00 | 87 | 1011.4 |
| 20260510024506 | 15 | 260 | 0.0 | 0.0 | 0.00 | 1.96 | 0.00 | 87 | 1011.4 |
| 20260510024406 | 15 | 260 | 0.0 | 0.0 | 0.00 | 1.96 | 0.00 | 87 | 1011.3 |
| 20260510024306 | 15 | 260 | 0.0 | 0.0 | 0.00 | 1.96 | 0.00 | 87 | 1011.4 |
| 20260510024205 | 15 | 260 | 0.0 | 0.0 | 0.00 | 1.96 | 0.00 | 87 | 1011.4 |
| 20260510024104 | 15 | 260 | 0.0 | 0.0 | 0.00 | 1.96 | 0.00 | 87 | 1011.4 |
| 20260510024008 | 15 | 260 | 0.0 | 0.0 | 0.00 | 1.96 | 0.00 | 87 | 1011.4 |
| 20260510023906 | 15 | 260 | 0.0 | 0.0 | 0.00 | 1.96 | 0.00 | 87 | 1011.3 |
| 20260510023808 | 15 | 260 | 0.0 | 0.0 | 0.00 | 1.96 | 0.00 | 87 | 1011.3 |
| 20260510023605 | 15 | 260 | 0.0 | 0.0 | 0.00 | 1.96 | 0.00 | 88 | 1011.3 |
| 20260510023509 | 15 | 260 | 0.0 | 0.0 | 0.00 | 1.96 | 0.00 | 88 | 1011.4 |
| 20260510023406 | 15 | 260 | 0.0 | 0.0 | 0.00 | 1.96 | 0.00 | 88 | 1011.3 |
| 20260510023305 | 15 | 260 | 0.0 | 0.0 | 0.00 | 1.96 | 0.00 | 88 | 1011.4 |
| 20260510023206 | 15 | 260 | 0.0 | 0.0 | 0.00 | 1.96 | 0.00 | 88 | 1011.4 |
| 20260510023106 | 15 | 260 | 0.0 | 0.0 | 0.00 | 1.96 | 0.00 | 88 | 1011.4 |
| 20260510023009 | 15 | 260 | 0.0 | 0.0 | 0.00 | 1.96 | 0.00 | 88 | 1011.4 |
| 20260510022904 | 15 | 260 | 0.0 | 0.0 | 0.00 | 1.96 | 0.00 | 88 | 1011.4 |
| 20260510022806 | 15 | 260 | 0.0 | 0.0 | 0.00 | 1.96 | 0.00 | 88 | 1011.4 |
| 20260510022705 | 15 | 260 | 0.0 | 0.0 | 0.00 | 1.96 | 0.00 | 88 | 1011.4 |
| 20260510022605 | 15 | 260 | 0.0 | 0.0 | 0.00 | 1.96 | 0.00 | 88 | 1011.4 |
| 20260510022506 | 15 | 260 | 0.0 | 0.0 | 0.00 | 1.96 | 0.00 | 88 | 1011.5 |
| 20260510022406 | 15 | 260 | 0.0 | 0.0 | 0.00 | 1.96 | 0.00 | 88 | 1011.4 |
| 20260510022205 | 15 | 260 | 0.0 | 0.0 | 0.00 | 1.96 | 0.00 | 88 | 1011.5 |
| 20260510022105 | 15 | 260 | 0.0 | 0.0 | 0.00 | 1.96 | 0.00 | 88 | 1011.5 |
| 20260510022008 | 15 | 260 | 0.0 | 0.0 | 0.00 | 1.96 | 0.00 | 88 | 1011.5 |
| 20260510021907 | 15 | 260 | 0.0 | 0.0 | 0.00 | 1.96 | 0.00 | 89 | 1011.5 |
| 20260510021804 | 15 | 260 | 0.0 | 0.0 | 0.00 | 1.96 | 0.00 | 89 | 1011.5 |
| 20260510021706 | 15 | 260 | 0.0 | 0.0 | 0.00 | 1.96 | 0.00 | 89 | 1011.5 |
| 20260510021507 | 15 | 260 | 0.0 | 0.0 | 0.00 | 1.96 | 0.00 | 88 | 1011.5 |
| 20260510021405 | 15 | 260 | 0.0 | 0.0 | 0.00 | 1.96 | 0.00 | 88 | 1011.5 |
| 20260510021307 | 15 | 260 | 0.0 | 0.0 | 0.00 | 1.96 | 0.00 | 88 | 1011.5 |
| 20260510021206 | 15 | 260 | 0.0 | 0.0 | 0.00 | 1.96 | 0.00 | 88 | 1011.5 |
| 20260510020906 | 15 | 260 | 0.0 | 0.0 | 0.00 | 1.96 | 0.00 | 88 | 1011.5 |
| 20260510020805 | 15 | 260 | 0.0 | 0.0 | 0.00 | 1.96 | 0.00 | 88 | 1011.5 |
| 20260510020705 | 15 | 260 | 0.0 | 0.0 | 0.00 | 1.96 | 0.00 | 88 | 1011.5 |
| 20260510020607 | 15 | 260 | 0.0 | 0.0 | 0.00 | 1.96 | 0.00 | 88 | 1011.5 |
| 20260510020509 | 15 | 260 | 0.0 | 0.0 | 0.00 | 1.96 | 0.00 | 88 | 1011.5 |
| 20260510020405 | 15 | 260 | 0.0 | 0.0 | 0.00 | 1.96 | 0.00 | 88 | 1011.5 |
| 20260510020305 | 15 | 260 | 0.0 | 0.0 | 0.00 | 1.96 | 0.00 | 88 | 1011.5 |
| 20260510020206 | 15 | 260 | 0.0 | 0.0 | 0.00 | 1.96 | 0.00 | 88 | 1011.4 |
| 20260510020104 | 15 | 260 | 0.0 | 0.0 | 0.00 | 1.96 | 0.00 | 88 | 1011.4 |
| 20260510015805 | 15 | 260 | 0.0 | 0.0 | 0.00 | 1.96 | 0.00 | 88 | 1011.4 |
| 20260510015706 | 15 | 260 | 0.0 | 0.0 | 0.00 | 1.96 | 0.00 | 88 | 1011.4 |
| 20260510015605 | 15 | 260 | 0.0 | 0.0 | 0.00 | 1.96 | 0.00 | 88 | 1011.3 |
| 20260510015508 | 15 | 260 | 0.0 | 0.0 | 0.00 | 1.96 | 0.00 | 88 | 1011.3 |
| 20260510015406 | 15 | 260 | 0.0 | 0.0 | 0.00 | 1.96 | 0.00 | 88 | 1011.3 |
| 20260510015306 | 15 | 260 | 0.0 | 0.0 | 0.00 | 1.96 | 0.00 | 88 | 1011.4 |
| 20260510015205 | 15 | 260 | 0.0 | 0.0 | 0.00 | 1.96 | 0.00 | 88 | 1011.3 |
| 20260510015007 | 15 | 260 | 0.0 | 0.0 | 0.00 | 1.96 | 0.00 | 88 | 1011.4 |
| 20260510014806 | 15 | 260 | 0.0 | 0.0 | 0.00 | 1.96 | 0.00 | 88 | 1011.4 |
| 20260510014705 | 15 | 260 | 0.0 | 0.0 | 0.00 | 1.96 | 0.00 | 88 | 1011.4 |
| 20260510014607 | 15 | 260 | 0.0 | 0.0 | 0.00 | 1.96 | 0.00 | 88 | 1011.3 |
| 20260510014507 | 15 | 260 | 0.0 | 0.0 | 0.00 | 1.96 | 0.00 | 88 | 1011.4 |
| 20260510014406 | 15 | 260 | 0.0 | 0.0 | 0.00 | 1.96 | 0.00 | 88 | 1011.4 |
| 20260510014307 | 15 | 260 | 0.0 | 0.0 | 0.00 | 1.96 | 0.00 | 87 | 1011.4 |
| 20260510014206 | 15 | 260 | 0.0 | 0.0 | 0.00 | 1.96 | 0.00 | 87 | 1011.4 |
| 20260510014106 | 15 | 260 | 0.0 | 0.0 | 0.00 | 1.96 | 0.00 | 87 | 1011.5 |
| 20260510014008 | 15 | 260 | 0.0 | 1.6 | 0.00 | 1.96 | 0.00 | 87 | 1011.5 |
| 20260510013907 | 15 | 260 | 0.0 | 3.2 | 0.00 | 1.96 | 0.00 | 87 | 1011.5 |
| 20260510013805 | 15 | 260 | 0.0 | 3.2 | 0.00 | 1.96 | 0.00 | 87 | 1011.5 |
| 20260510013707 | 15 | 260 | 0.0 | 3.2 | 0.00 | 1.96 | 0.00 | 87 | 1011.6 |
| 20260510013605 | 15 | 260 | 0.0 | 3.2 | 0.00 | 1.96 | 0.00 | 87 | 1011.5 |
| 20260510013508 | 15 | 260 | 0.0 | 3.2 | 0.00 | 1.96 | 0.00 | 87 | 1011.5 |
| 20260510013405 | 15 | 260 | 0.0 | 3.2 | 0.00 | 1.96 | 0.00 | 87 | 1011.5 |
| 20260510013306 | 15 | 260 | 0.0 | 3.2 | 0.00 | 1.96 | 0.00 | 87 | 1011.6 |
| 20260510013007 | 15 | 260 | 0.0 | 3.2 | 0.00 | 1.96 | 0.00 | 87 | 1011.5 |
| 20260510012806 | 15 | 260 | 0.0 | 3.2 | 0.00 | 1.96 | 0.00 | 87 | 1011.4 |
| 20260510012605 | 15 | 260 | 0.0 | 0.0 | 0.00 | 1.96 | 0.00 | 87 | 1011.5 |
| 20260510012506 | 15 | 260 | 0.0 | 0.0 | 0.00 | 1.96 | 0.00 | 87 | 1011.5 |
| 20260510012405 | 15 | 260 | 0.0 | 0.0 | 0.00 | 1.96 | 0.00 | 87 | 1011.5 |
| 20260510012307 | 15 | 260 | 0.0 | 0.0 | 0.00 | 1.96 | 0.00 | 87 | 1011.5 |
| 20260510012206 | 15 | 260 | 0.0 | 0.0 | 0.00 | 1.96 | 0.00 | 87 | 1011.5 |
| 20260510012106 | 15 | 260 | 0.0 | 0.0 | 0.00 | 1.96 | 0.00 | 87 | 1011.5 |
| 20260510011906 | 15 | 260 | 0.0 | 0.0 | 0.00 | 1.96 | 0.00 | 87 | 1011.5 |
| 20260510011804 | 15 | 260 | 0.0 | 0.0 | 0.00 | 1.96 | 0.00 | 87 | 1011.4 |
| 20260510011707 | 15 | 260 | 0.0 | 0.0 | 0.00 | 1.96 | 0.00 | 87 | 1011.4 |
| 20260510011608 | 15 | 260 | 0.0 | 0.0 | 0.00 | 1.96 | 0.00 | 87 | 1011.5 |
| 20260510011507 | 15 | 260 | 0.0 | 0.0 | 0.00 | 1.96 | 0.00 | 86 | 1011.5 |
| 20260510011404 | 15 | 260 | 0.0 | 0.0 | 0.00 | 1.96 | 0.00 | 86 | 1011.5 |
| 20260510011307 | 15 | 260 | 0.0 | 0.0 | 0.00 | 1.96 | 0.00 | 86 | 1011.5 |
| 20260510011205 | 15 | 260 | 0.0 | 0.0 | 0.00 | 1.96 | 0.00 | 87 | 1011.5 |
| 20260510011107 | 15 | 260 | 0.0 | 0.0 | 0.00 | 1.96 | 0.00 | 87 | 1011.5 |
| 20260510011013 | 15 | 260 | 0.0 | 0.0 | 0.00 | 1.96 | 0.00 | 87 | 1011.5 |
| 20260510010907 | 15 | 260 | 0.0 | 0.0 | 0.00 | 1.96 | 0.00 | 87 | 1011.6 |
| 20260510010806 | 15 | 260 | 0.0 | 0.0 | 0.00 | 1.96 | 0.00 | 87 | 1011.6 |
| 20260510010606 | 15 | 260 | 0.0 | 0.0 | 0.00 | 1.96 | 0.00 | 87 | 1011.6 |
| 20260510010508 | 15 | 260 | 0.0 | 0.0 | 0.00 | 1.96 | 0.00 | 86 | 1011.7 |
| 20260510010406 | 15 | 260 | 0.0 | 0.0 | 0.00 | 1.96 | 0.00 | 86 | 1011.8 |
| 20260510010306 | 15 | 260 | 0.0 | 0.0 | 0.00 | 1.96 | 0.00 | 86 | 1011.8 |
| 20260510010206 | 15 | 260 | 0.0 | 0.0 | 0.00 | 1.96 | 0.00 | 86 | 1011.7 |
| 20260510010106 | 15 | 260 | 0.0 | 0.0 | 0.00 | 1.96 | 0.00 | 86 | 1011.7 |
| 20260510010008 | 15 | 260 | 0.0 | 0.0 | 0.00 | 1.96 | 0.00 | 86 | 1011.7 |
| 20260510005905 | 15 | 260 | 0.0 | 0.0 | 0.00 | 1.96 | 0.00 | 87 | 1011.8 |
| 20260510005805 | 15 | 260 | 0.0 | 4.8 | 0.00 | 1.96 | 0.00 | 86 | 1011.7 |
| 20260510005704 | 15 | 260 | 0.0 | 4.8 | 0.00 | 1.96 | 0.00 | 86 | 1011.7 |
| 20260510005505 | 15 | 260 | 0.0 | 4.8 | 0.00 | 1.96 | 0.00 | 87 | 1011.7 |
| 20260510005404 | 15 | 260 | 0.0 | 4.8 | 0.00 | 1.96 | 0.00 | 87 | 1011.8 |
| 20260510005306 | 15 | 260 | 0.0 | 4.8 | 0.00 | 1.96 | 0.00 | 87 | 1011.8 |
| 20260510005105 | 15 | 260 | 0.0 | 4.8 | 0.00 | 1.96 | 0.00 | 87 | 1011.8 |
| 20260510005007 | 15 | 260 | 0.0 | 4.8 | 0.00 | 1.96 | 0.00 | 87 | 1011.9 |
| 20260510004905 | 15 | 349 | 0.0 | 3.2 | 0.00 | 1.96 | 0.00 | 87 | 1011.7 |
| 20260510004704 | 15 | 349 | 0.0 | 3.2 | 0.00 | 1.96 | 0.00 | 87 | 1011.9 |
| 20260510004604 | 15 | 349 | 0.0 | 3.2 | 0.00 | 1.96 | 0.00 | 87 | 1011.8 |
| 20260510004506 | 15 | 349 | 0.0 | 3.2 | 0.00 | 1.96 | 0.00 | 87 | 1011.8 |
| 20260510004405 | 15 | 349 | 0.0 | 3.2 | 0.00 | 1.96 | 0.00 | 87 | 1011.8 |
| 20260510004204 | 15 | 349 | 0.0 | 0.0 | 0.00 | 1.96 | 0.00 | 87 | 1011.9 |
| 20260510004104 | 15 | 349 | 0.0 | 0.0 | 0.00 | 1.96 | 0.00 | 87 | 1011.8 |
| 20260510004006 | 15 | 349 | 0.0 | 0.0 | 0.00 | 1.96 | 0.00 | 87 | 1011.9 |
| 20260510003807 | 15 | 349 | 0.0 | 0.0 | 0.00 | 1.96 | 0.00 | 87 | 1011.8 |
| 20260510003704 | 15 | 349 | 0.0 | 0.0 | 0.00 | 1.96 | 0.00 | 87 | 1011.9 |
| 20260510003605 | 15 | 349 | 0.0 | 0.0 | 0.00 | 1.96 | 0.00 | 88 | 1011.9 |
| 20260510003505 | 15 | 349 | 0.0 | 0.0 | 0.00 | 1.96 | 0.00 | 88 | 1011.9 |
| 20260510003404 | 15 | 349 | 0.0 | 0.0 | 0.00 | 1.96 | 0.00 | 88 | 1011.9 |
| 20260510003306 | 15 | 349 | 0.0 | 0.0 | 0.00 | 1.96 | 0.00 | 88 | 1012.0 |
| 20260510003205 | 15 | 349 | 0.0 | 0.0 | 0.00 | 1.96 | 0.00 | 88 | 1012.0 |
| 20260510003104 | 15 | 349 | 0.0 | 0.0 | 0.00 | 1.96 | 0.00 | 88 | 1012.0 |
| 20260510003006 | 15 | 349 | 0.0 | 0.0 | 0.00 | 1.96 | 0.00 | 88 | 1012.0 |
| 20260510002804 | 15 | 349 | 0.0 | 0.0 | 0.00 | 1.96 | 0.00 | 88 | 1012.0 |
| 20260510002705 | 15 | 349 | 0.0 | 0.0 | 0.00 | 1.96 | 0.00 | 88 | 1011.9 |
| 20260510002604 | 15 | 349 | 0.0 | 0.0 | 0.00 | 1.96 | 0.00 | 87 | 1012.0 |
| 20260510002507 | 15 | 349 | 0.0 | 0.0 | 0.00 | 1.96 | 0.00 | 87 | 1011.9 |
| 20260510002306 | 15 | 349 | 0.0 | 0.0 | 0.00 | 1.96 | 0.00 | 87 | 1012.0 |
| 20260510002105 | 15 | 349 | 0.0 | 0.0 | 0.00 | 1.96 | 0.00 | 87 | 1012.1 |
| 20260510001904 | 15 | 349 | 0.0 | 0.0 | 0.00 | 1.96 | 0.00 | 87 | 1012.3 |
| 20260510001704 | 15 | 349 | 0.0 | 0.0 | 0.00 | 1.96 | 0.00 | 87 | 1012.2 |
| 20260510001507 | 15 | 349 | 0.0 | 0.0 | 0.00 | 1.96 | 0.00 | 87 | 1012.2 |
| 20260510001404 | 16 | 349 | 0.0 | 1.6 | 0.00 | 1.96 | 0.00 | 87 | 1012.3 |
| 20260510001304 | 16 | 349 | 0.0 | 1.6 | 0.00 | 1.96 | 0.00 | 87 | 1012.2 |
| 20260510001204 | 16 | 349 | 1.6 | 1.6 | 0.00 | 1.96 | 0.00 | 87 | 1012.2 |
| 20260510001006 | 16 | 349 | 1.6 | 4.8 | 0.00 | 1.96 | 0.00 | 87 | 1012.2 |
| 20260510000904 | 16 | 349 | 1.6 | 4.8 | 0.00 | 1.96 | 0.00 | 87 | 1012.2 |
| 20260510000605 | 16 | 349 | 1.6 | 4.8 | 0.00 | 1.96 | 0.00 | 87 | 1012.2 |
| 20260510000506 | 16 | 349 | 1.6 | 4.8 | 0.00 | 1.96 | 0.00 | 87 | 1012.2 |
| 20260510000405 | 16 | 349 | 1.6 | 4.8 | 0.00 | 1.96 | 0.00 | 87 | 1012.1 |
| 20260510000305 | 16 | 349 | 1.6 | 4.8 | 0.00 | 1.96 | 0.00 | 87 | 1012.0 |
| 20260510000204 | 16 | 349 | 1.6 | 4.8 | 0.00 | 1.96 | 0.00 | 87 | 1012.1 |
| 20260510000105 | 16 | 349 | 1.6 | 4.8 | 0.00 | 1.96 | 0.00 | 87 | 1012.1 |
| 20260510000010 | 16 | 349 | 1.6 | 4.8 | 0.00 | 1.96 | 0.00 | 87 | 1012.1 |
| 20260509235904 | 16 | 349 | 1.6 | 3.2 | 0.00 | 1.96 | 0.00 | 87 | 1012.1 |
| 20260509235704 | 16 | 349 | 1.6 | 3.2 | 0.00 | 1.96 | 0.00 | 87 | 1012.1 |
| 20260509235604 | 16 | 349 | 1.6 | 3.2 | 0.00 | 1.96 | 0.00 | 87 | 1012.2 |
| 20260509235506 | 16 | 349 | 1.6 | 3.2 | 0.00 | 1.96 | 0.00 | 87 | 1012.2 |
| 20260509235406 | 16 | 349 | 1.6 | 3.2 | 0.00 | 1.96 | 0.00 | 87 | 1012.1 |
| 20260509235307 | 16 | 349 | 1.6 | 3.2 | 0.00 | 1.96 | 0.00 | 87 | 1012.2 |
| 20260509235205 | 16 | 349 | 1.6 | 3.2 | 0.00 | 1.96 | 0.00 | 87 | 1012.2 |
| 20260509235104 | 16 | 349 | 1.6 | 3.2 | 0.00 | 1.96 | 0.00 | 87 | 1012.2 |
| 20260509235007 | 16 | 349 | 1.6 | 3.2 | 0.00 | 1.96 | 0.00 | 87 | 1012.2 |
| 20260509234705 | 16 | 349 | 1.6 | 4.8 | 0.00 | 1.96 | 0.00 | 87 | 1012.3 |
| 20260509234606 | 16 | 349 | 1.6 | 4.8 | 0.00 | 1.96 | 0.00 | 87 | 1012.2 |
| 20260509234505 | 16 | 349 | 1.6 | 4.8 | 0.00 | 1.96 | 0.00 | 87 | 1012.2 |
| 20260509234404 | 16 | 349 | 0.0 | 4.8 | 0.00 | 1.96 | 0.00 | 87 | 1012.3 |
| 20260509234304 | 16 | 349 | 0.0 | 4.8 | 0.00 | 1.96 | 0.00 | 87 | 1012.2 |
| 20260509234204 | 16 | 349 | 0.0 | 4.8 | 0.00 | 1.96 | 0.00 | 87 | 1012.2 |
| 20260509234105 | 16 | 349 | 0.0 | 4.8 | 0.00 | 1.96 | 0.00 | 87 | 1012.2 |
| 20260509234007 | 16 | 349 | 0.0 | 4.8 | 0.00 | 1.96 | 0.00 | 87 | 1012.3 |
| 20260509233904 | 16 | 349 | 0.0 | 0.0 | 0.00 | 1.96 | 0.00 | 87 | 1012.3 |
| 20260509233805 | 16 | 349 | 0.0 | 0.0 | 0.00 | 1.96 | 0.00 | 87 | 1012.3 |
| 20260509233705 | 16 | 349 | 0.0 | 0.0 | 0.00 | 1.96 | 0.00 | 87 | 1012.3 |
| 20260509233605 | 16 | 349 | 0.0 | 0.0 | 0.00 | 1.96 | 0.00 | 87 | 1012.3 |
| 20260509233505 | 16 | 349 | 0.0 | 0.0 | 0.00 | 1.96 | 0.00 | 87 | 1012.3 |
| 20260509233405 | 16 | 349 | 0.0 | 0.0 | 0.00 | 1.96 | 0.00 | 87 | 1012.4 |
| 20260509233304 | 16 | 349 | 0.0 | 0.0 | 0.00 | 1.96 | 0.00 | 87 | 1012.3 |
| 20260509233105 | 16 | 349 | 0.0 | 0.0 | 0.00 | 1.96 | 0.00 | 87 | 1012.3 |
| 20260509232806 | 16 | 349 | 0.0 | 0.0 | 0.00 | 1.96 | 0.00 | 87 | 1012.2 |
| 20260509232701 | 16 | 349 | 0.0 | 0.0 | 0.00 | 1.96 | 0.00 | 87 | 1012.3 |
| 20260509232600 | 16 | 349 | 0.0 | 0.0 | 0.00 | 1.96 | 0.00 | 87 | 1012.3 |
| 20260509232404 | 16 | 349 | 0.0 | 0.0 | 0.00 | 1.96 | 0.00 | 87 | 1012.3 |
| 20260509232306 | 16 | 349 | 0.0 | 0.0 | 0.00 | 1.96 | 0.00 | 87 | 1012.3 |
| 20260509232204 | 16 | 349 | 0.0 | 0.0 | 0.00 | 1.96 | 0.00 | 87 | 1012.3 |
| 20260509232104 | 16 | 349 | 0.0 | 0.0 | 0.00 | 1.96 | 0.00 | 87 | 1012.3 |
| 20260509232006 | 16 | 349 | 0.0 | 0.0 | 0.00 | 1.96 | 0.00 | 87 | 1012.3 |
| 20260509231904 | 16 | 349 | 0.0 | 0.0 | 0.00 | 1.96 | 0.00 | 87 | 1012.4 |
| 20260509231805 | 16 | 349 | 0.0 | 1.6 | 0.00 | 1.96 | 0.00 | 87 | 1012.4 |
| 20260509231605 | 16 | 349 | 1.6 | 1.6 | 0.00 | 1.96 | 0.00 | 87 | 1012.4 |
| 20260509231506 | 16 | 349 | 1.6 | 1.6 | 0.00 | 1.96 | 0.00 | 87 | 1012.3 |
| 20260509231404 | 16 | 349 | 1.6 | 4.8 | 0.00 | 1.96 | 0.00 | 87 | 1012.4 |
| 20260509231205 | 16 | 349 | 3.2 | 6.4 | 0.00 | 1.96 | 0.00 | 87 | 1012.4 |
| 20260509231104 | 16 | 349 | 3.2 | 6.4 | 0.00 | 1.96 | 0.00 | 87 | 1012.4 |
| 20260509231006 | 16 | 349 | 3.2 | 6.4 | 0.00 | 1.96 | 0.00 | 87 | 1012.4 |
| 20260509230707 | 16 | 349 | 3.2 | 6.4 | 0.00 | 1.96 | 0.00 | 87 | 1012.4 |
| 20260509230605 | 16 | 349 | 3.2 | 6.4 | 0.00 | 1.96 | 0.00 | 87 | 1012.4 |
| 20260509230506 | 16 | 325 | 3.2 | 6.4 | 0.00 | 1.96 | 0.00 | 87 | 1012.5 |
| 20260509230405 | 16 | 341 | 1.6 | 6.4 | 0.00 | 1.96 | 0.00 | 87 | 1012.4 |
| 20260509230304 | 16 | 350 | 1.6 | 6.4 | 0.00 | 1.96 | 0.00 | 87 | 1012.5 |
| 20260509230203 | 16 | 306 | 1.6 | 4.8 | 0.00 | 1.96 | 0.00 | 87 | 1012.5 |
| 20260509230104 | 16 | 342 | 1.6 | 4.8 | 0.00 | 1.96 | 0.00 | 87 | 1012.6 |
| 20260509230006 | 16 | 342 | 1.6 | 4.8 | 0.00 | 1.96 | 0.00 | 86 | 1012.5 |
| 20260509225904 | 16 | 342 | 1.6 | 4.8 | 0.00 | 1.96 | 0.00 | 86 | 1012.5 |
| 20260509225806 | 16 | 342 | 1.6 | 4.8 | 0.00 | 1.96 | 0.00 | 86 | 1012.5 |
| 20260509225705 | 16 | 342 | 1.6 | 3.2 | 0.00 | 1.96 | 0.00 | 86 | 1012.4 |
| 20260509225604 | 16 | 342 | 1.6 | 3.2 | 0.00 | 1.96 | 0.00 | 86 | 1012.4 |
| 20260509225405 | 16 | 342 | 1.6 | 3.2 | 0.00 | 1.96 | 0.00 | 86 | 1012.5 |
| 20260509225306 | 16 | 342 | 1.6 | 3.2 | 0.00 | 1.96 | 0.00 | 86 | 1012.4 |
| 20260509225205 | 16 | 342 | 1.6 | 3.2 | 0.00 | 1.96 | 0.00 | 86 | 1012.5 |
| 20260509225103 | 16 | 342 | 1.6 | 3.2 | 0.00 | 1.96 | 0.00 | 86 | 1012.5 |
| 20260509224904 | 16 | 342 | 1.6 | 4.8 | 0.00 | 1.96 | 0.00 | 86 | 1012.5 |
| 20260509224507 | 16 | 342 | 3.2 | 8.0 | 0.00 | 1.96 | 0.00 | 86 | 1012.5 |
| 20260509224404 | 16 | 342 | 3.2 | 8.0 | 0.00 | 1.96 | 0.00 | 86 | 1012.6 |
| 20260509224305 | 16 | 342 | 3.2 | 8.0 | 0.00 | 1.96 | 0.00 | 86 | 1012.6 |
| 20260509224006 | 16 | 342 | 3.2 | 8.0 | 0.00 | 1.96 | 0.00 | 86 | 1012.6 |
| 20260509223904 | 16 | 342 | 3.2 | 8.0 | 0.00 | 1.96 | 0.00 | 86 | 1012.6 |
| 20260509223805 | 16 | 321 | 3.2 | 8.0 | 0.00 | 1.96 | 0.00 | 86 | 1012.7 |
| 20260509223706 | 16 | 274 | 3.2 | 8.0 | 0.00 | 1.96 | 0.00 | 86 | 1012.7 |
| 20260509223605 | 16 | 325 | 3.2 | 8.0 | 0.00 | 1.96 | 0.00 | 86 | 1012.7 |
| 20260509223507 | 16 | 319 | 1.6 | 8.0 | 0.00 | 1.96 | 0.00 | 86 | 1012.7 |
| 20260509223405 | 16 | 325 | 1.6 | 6.4 | 0.00 | 1.96 | 0.00 | 86 | 1012.8 |
| 20260509223306 | 16 | 330 | 1.6 | 6.4 | 0.00 | 1.96 | 0.00 | 86 | 1012.8 |
| 20260509223103 | 16 | 239 | 1.6 | 4.8 | 0.00 | 1.96 | 0.00 | 86 | 1012.8 |
| 20260509223007 | 16 | 239 | 1.6 | 4.8 | 0.00 | 1.96 | 0.00 | 86 | 1012.7 |
| 20260509222904 | 16 | 239 | 0.0 | 3.2 | 0.00 | 1.96 | 0.00 | 86 | 1012.8 |
| 20260509222804 | 16 | 239 | 0.0 | 3.2 | 0.00 | 1.96 | 0.00 | 86 | 1012.8 |
| 20260509222705 | 16 | 239 | 0.0 | 3.2 | 0.00 | 1.96 | 0.00 | 86 | 1012.8 |
| 20260509222506 | 16 | 191 | 0.0 | 3.2 | 0.00 | 1.96 | 0.00 | 86 | 1012.7 |
| 20260509222306 | 16 | 191 | 0.0 | 1.6 | 0.00 | 1.96 | 0.00 | 86 | 1012.8 |
| 20260509222204 | 16 | 191 | 0.0 | 1.6 | 0.00 | 1.96 | 0.00 | 86 | 1012.8 |
| 20260509222104 | 16 | 191 | 0.0 | 1.6 | 0.00 | 1.96 | 0.00 | 86 | 1012.7 |
| 20260509222006 | 16 | 293 | 0.0 | 0.0 | 0.00 | 1.96 | 0.00 | 86 | 1012.8 |
| 20260509221905 | 16 | 293 | 0.0 | 0.0 | 0.00 | 1.96 | 0.00 | 86 | 1012.7 |
| 20260509221704 | 16 | 293 | 0.0 | 3.2 | 0.00 | 1.96 | 0.00 | 86 | 1012.8 |
| 20260509221603 | 16 | 293 | 0.0 | 3.2 | 0.00 | 1.96 | 0.00 | 86 | 1012.8 |
| 20260509221506 | 16 | 293 | 0.0 | 3.2 | 0.00 | 1.96 | 0.00 | 86 | 1012.8 |
| 20260509221404 | 16 | 293 | 0.0 | 3.2 | 0.00 | 1.96 | 0.00 | 86 | 1012.8 |
| 20260509221304 | 16 | 293 | 1.6 | 3.2 | 0.00 | 1.96 | 0.00 | 86 | 1012.8 |
| 20260509221204 | 16 | 293 | 1.6 | 3.2 | 0.00 | 1.96 | 0.00 | 86 | 1012.8 |
| 20260509221105 | 16 | 293 | 1.6 | 6.4 | 0.00 | 1.96 | 0.00 | 86 | 1012.7 |
| 20260509221008 | 16 | 293 | 1.6 | 6.4 | 0.00 | 1.96 | 0.00 | 86 | 1012.8 |
| 20260509220904 | 16 | 293 | 1.6 | 6.4 | 0.00 | 1.96 | 0.00 | 86 | 1012.9 |
| 20260509220806 | 16 | 293 | 1.6 | 6.4 | 0.00 | 1.96 | 0.00 | 86 | 1013.0 |
| 20260509220705 | 16 | 293 | 1.6 | 6.4 | 0.00 | 1.96 | 0.00 | 86 | 1012.9 |
| 20260509220604 | 16 | 227 | 1.6 | 6.4 | 0.00 | 1.96 | 0.00 | 86 | 1013.0 |
| 20260509220509 | 16 | 227 | 1.6 | 6.4 | 0.00 | 1.96 | 0.00 | 86 | 1013.0 |
| 20260509220406 | 16 | 227 | 1.6 | 6.4 | 0.00 | 1.96 | 0.00 | 86 | 1013.0 |
| 20260509220307 | 16 | 227 | 1.6 | 6.4 | 0.00 | 1.96 | 0.00 | 87 | 1012.9 |
| 20260509220108 | 16 | 241 | 1.6 | 4.8 | 0.00 | 1.96 | 0.00 | 86 | 1013.0 |
| 20260509220023 | 16 | 241 | 1.6 | 4.8 | 0.00 | 1.96 | 0.00 | 87 | 1012.9 |
| 20260509215907 | 16 | 330 | 1.6 | 4.8 | 0.00 | 1.96 | 1.96 | 87 | 1012.8 |
| 20260509215807 | 16 | 330 | 1.6 | 4.8 | 0.00 | 1.96 | 1.96 | 87 | 1012.8 |
| 20260509215707 | 16 | 330 | 1.6 | 4.8 | 0.00 | 1.96 | 1.96 | 87 | 1012.8 |
| 20260509215608 | 16 | 330 | 1.6 | 4.8 | 0.00 | 1.96 | 1.96 | 87 | 1012.8 |
| 20260509215408 | 16 | 330 | 1.6 | 4.8 | 0.00 | 1.96 | 1.96 | 87 | 1012.8 |
| 20260509215307 | 16 | 330 | 1.6 | 4.8 | 0.00 | 1.96 | 1.96 | 87 | 1012.8 |
| 20260509215209 | 16 | 330 | 1.6 | 4.8 | 0.00 | 1.96 | 1.96 | 87 | 1012.8 |
| 20260509215107 | 16 | 297 | 0.0 | 4.8 | 0.00 | 1.96 | 1.96 | 87 | 1012.8 |
| 20260509215009 | 16 | 231 | 0.0 | 4.8 | 0.00 | 1.96 | 1.96 | 87 | 1012.7 |
| 20260509214807 | 16 | 231 | 0.0 | 4.8 | 0.00 | 1.96 | 1.96 | 87 | 1012.7 |
| 20260509214710 | 16 | 231 | 0.0 | 3.2 | 0.00 | 1.96 | 1.96 | 87 | 1012.6 |
| 20260509214607 | 16 | 231 | 0.0 | 3.2 | 0.00 | 1.96 | 1.96 | 87 | 1012.6 |
| 20260509214512 | 16 | 123 | 0.0 | 1.6 | 0.00 | 1.96 | 1.96 | 87 | 1012.5 |
| 20260509214408 | 16 | 123 | 0.0 | 1.6 | 0.00 | 1.96 | 1.96 | 87 | 1012.5 |
| 20260509214307 | 16 | 123 | 0.0 | 3.2 | 0.00 | 1.96 | 1.96 | 87 | 1012.4 |
| 20260509214208 | 16 | 123 | 0.0 | 3.2 | 0.00 | 1.96 | 1.96 | 87 | 1012.4 |
| 20260509214109 | 16 | 123 | 1.6 | 3.2 | 0.00 | 1.96 | 1.96 | 87 | 1012.5 |
| 20260509214010 | 16 | 123 | 1.6 | 3.2 | 0.00 | 1.96 | 1.96 | 87 | 1012.4 |
| 20260509213809 | 16 | 123 | 1.6 | 4.8 | 0.00 | 1.96 | 1.96 | 87 | 1012.4 |
| 20260509213707 | 16 | 123 | 1.6 | 4.8 | 0.00 | 1.96 | 1.96 | 87 | 1012.3 |
| 20260509213608 | 16 | 123 | 1.6 | 4.8 | 0.00 | 1.96 | 1.96 | 87 | 1012.3 |
| 20260509213509 | 16 | 123 | 1.6 | 4.8 | 0.00 | 1.96 | 1.96 | 87 | 1012.2 |
| 20260509213308 | 16 | 123 | 1.6 | 6.4 | 0.00 | 1.96 | 1.96 | 87 | 1012.1 |
| 20260509213107 | 16 | 123 | 1.6 | 6.4 | 0.00 | 1.96 | 1.96 | 87 | 1012.0 |
| 20260509213009 | 16 | 274 | 1.6 | 6.4 | 0.00 | 1.96 | 1.96 | 87 | 1011.9 |
| 20260509212908 | 16 | 274 | 1.6 | 6.4 | 0.00 | 1.96 | 1.96 | 87 | 1011.9 |
| 20260509212709 | 16 | 274 | 3.2 | 9.7 | 0.00 | 1.96 | 1.96 | 87 | 1011.9 |
| 20260509212608 | 16 | 274 | 3.2 | 9.7 | 0.00 | 1.96 | 1.96 | 87 | 1012.0 |
| 20260509212509 | 16 | 276 | 1.6 | 9.7 | 0.00 | 1.96 | 1.96 | 87 | 1011.9 |
| 20260509212307 | 16 | 90 | 1.6 | 9.7 | 0.00 | 1.96 | 1.96 | 87 | 1011.7 |
| 20260509212207 | 16 | 144 | 1.6 | 9.7 | 0.00 | 1.96 | 1.96 | 87 | 1011.7 |
| 20260509212108 | 16 | 106 | 1.6 | 9.7 | 0.00 | 1.96 | 1.96 | 86 | 1011.7 |
| 20260509212009 | 16 | 106 | 1.6 | 9.7 | 0.00 | 1.96 | 1.96 | 86 | 1011.8 |
| 20260509211909 | 16 | 90 | 1.6 | 9.7 | 0.00 | 1.96 | 1.96 | 86 | 1011.8 |
| 20260509211808 | 16 | 118 | 1.6 | 8.0 | 0.00 | 1.96 | 1.96 | 86 | 1012.0 |
| 20260509211708 | 16 | 108 | 1.6 | 8.0 | 0.00 | 1.96 | 1.96 | 86 | 1012.0 |
| 20260509211608 | 16 | 94 | 1.6 | 6.4 | 0.00 | 1.96 | 1.96 | 86 | 1012.1 |
| 20260509211508 | 16 | 170 | 1.6 | 6.4 | 0.00 | 1.96 | 1.96 | 86 | 1012.3 |
| 20260509211409 | 16 | 170 | 1.6 | 6.4 | 0.00 | 1.96 | 1.96 | 86 | 1012.4 |
| 20260509211207 | 16 | 170 | 1.6 | 6.4 | 0.00 | 1.96 | 1.96 | 86 | 1012.4 |
| 20260509211107 | 16 | 133 | 0.0 | 6.4 | 0.00 | 1.96 | 1.96 | 86 | 1012.4 |
| 20260509211010 | 16 | 172 | 0.0 | 6.4 | 0.00 | 1.96 | 1.96 | 86 | 1012.4 |
| 20260509210907 | 16 | 171 | 0.0 | 6.4 | 0.00 | 1.96 | 1.96 | 86 | 1012.4 |
| 20260509210807 | 16 | 156 | 0.0 | 6.4 | 0.00 | 1.96 | 1.96 | 86 | 1012.4 |
| 20260509210707 | 16 | 159 | 0.0 | 3.2 | 0.00 | 1.96 | 1.96 | 86 | 1012.3 |
| 20260509210608 | 16 | 159 | 0.0 | 3.2 | 0.00 | 1.96 | 1.96 | 86 | 1012.3 |
| 20260509210509 | 16 | 159 | 0.0 | 3.2 | 0.00 | 1.96 | 1.96 | 86 | 1012.4 |
| 20260509210409 | 16 | 159 | 0.0 | 3.2 | 0.00 | 1.96 | 1.96 | 86 | 1012.4 |
| 20260509210309 | 16 | 159 | 0.0 | 3.2 | 0.00 | 1.96 | 1.96 | 86 | 1012.4 |
| 20260509210208 | 16 | 159 | 0.0 | 1.6 | 0.00 | 1.96 | 1.96 | 86 | 1012.4 |
| 20260509210108 | 16 | 159 | 0.0 | 1.6 | 0.00 | 1.96 | 1.96 | 86 | 1012.4 |
| 20260509205906 | 16 | 159 | 0.0 | 1.6 | 0.00 | 1.96 | 1.96 | 86 | 1012.3 |
| 20260509205807 | 16 | 159 | 0.0 | 1.6 | 0.00 | 1.96 | 1.96 | 86 | 1012.3 |
| 20260509205707 | 16 | 159 | 0.0 | 0.0 | 0.00 | 1.96 | 1.96 | 86 | 1012.2 |
| 20260509205607 | 16 | 159 | 0.0 | 0.0 | 0.00 | 1.96 | 1.96 | 86 | 1012.2 |
| 20260509205508 | 16 | 159 | 0.0 | 0.0 | 0.00 | 1.96 | 1.96 | 85 | 1012.2 |
| 20260509205407 | 16 | 159 | 0.0 | 0.0 | 0.00 | 1.96 | 1.96 | 86 | 1012.4 |
| 20260509205307 | 16 | 159 | 0.0 | 0.0 | 0.00 | 1.96 | 1.96 | 86 | 1012.4 |
| 20260509205207 | 16 | 159 | 0.0 | 0.0 | 0.00 | 1.96 | 1.96 | 86 | 1012.4 |
| 20260509205107 | 16 | 159 | 0.0 | 0.0 | 0.00 | 1.96 | 1.96 | 85 | 1012.4 |
| 20260509205009 | 16 | 159 | 0.0 | 0.0 | 0.00 | 1.96 | 1.96 | 86 | 1012.3 |
| 20260509204907 | 16 | 159 | 0.0 | 0.0 | 0.00 | 1.96 | 1.96 | 85 | 1012.3 |
| 20260509204806 | 16 | 159 | 0.0 | 0.0 | 0.00 | 1.96 | 1.96 | 86 | 1012.4 |
| 20260509204606 | 16 | 159 | 0.0 | 0.0 | 0.00 | 1.96 | 1.96 | 86 | 1012.3 |
| 20260509204208 | 16 | 159 | 0.0 | 0.0 | 0.00 | 1.96 | 1.96 | 86 | 1012.3 |
| 20260509204107 | 16 | 159 | 0.0 | 0.0 | 0.00 | 1.96 | 1.96 | 86 | 1012.4 |
| 20260509204009 | 16 | 159 | 0.0 | 0.0 | 0.00 | 1.96 | 1.96 | 86 | 1012.4 |
| 20260509203907 | 16 | 159 | 0.0 | 0.0 | 0.00 | 1.96 | 1.96 | 86 | 1012.4 |
| 20260509203806 | 16 | 159 | 0.0 | 0.0 | 0.00 | 1.96 | 1.96 | 86 | 1012.4 |
| 20260509203706 | 16 | 159 | 0.0 | 0.0 | 0.00 | 1.96 | 1.96 | 86 | 1012.4 |
| 20260509203607 | 16 | 159 | 0.0 | 0.0 | 0.00 | 1.96 | 1.96 | 86 | 1012.4 |
| 20260509203509 | 16 | 159 | 0.0 | 0.0 | 0.00 | 1.96 | 1.96 | 86 | 1012.3 |
| 20260509203408 | 16 | 159 | 0.0 | 0.0 | 0.00 | 1.96 | 1.96 | 86 | 1012.3 |
| 20260509203307 | 16 | 159 | 0.0 | 0.0 | 0.00 | 1.96 | 1.96 | 86 | 1012.2 |
| 20260509203206 | 16 | 159 | 0.0 | 0.0 | 0.00 | 1.96 | 1.96 | 86 | 1012.1 |
| 20260509203106 | 16 | 159 | 0.0 | 0.0 | 0.00 | 1.96 | 1.96 | 86 | 1012.1 |
| 20260509202906 | 16 | 159 | 0.0 | 0.0 | 0.00 | 1.96 | 1.96 | 86 | 1012.0 |
| 20260509202806 | 16 | 159 | 0.0 | 0.0 | 0.00 | 1.96 | 1.96 | 86 | 1012.0 |
| 20260509202706 | 16 | 159 | 0.0 | 0.0 | 0.00 | 1.96 | 1.96 | 86 | 1012.1 |
| 20260509202606 | 16 | 159 | 0.0 | 0.0 | 0.00 | 1.96 | 1.96 | 86 | 1012.1 |
| 20260509202509 | 16 | 159 | 0.0 | 0.0 | 0.00 | 1.96 | 1.96 | 86 | 1012.1 |
| 20260509202408 | 16 | 159 | 0.0 | 0.0 | 0.00 | 1.96 | 1.96 | 86 | 1012.1 |
| 20260509202307 | 16 | 159 | 0.0 | 0.0 | 0.00 | 1.96 | 1.96 | 86 | 1012.1 |
| 20260509202206 | 16 | 159 | 0.0 | 0.0 | 0.00 | 1.96 | 1.96 | 86 | 1012.1 |
| 20260509202106 | 16 | 159 | 0.0 | 0.0 | 0.00 | 1.96 | 1.96 | 86 | 1012.1 |
| 20260509202008 | 16 | 159 | 0.0 | 0.0 | 0.00 | 1.96 | 1.96 | 86 | 1012.1 |
| 20260509201907 | 16 | 159 | 0.0 | 0.0 | 0.00 | 1.96 | 1.96 | 86 | 1012.1 |
| 20260509201706 | 16 | 159 | 0.0 | 0.0 | 0.00 | 1.96 | 1.96 | 86 | 1012.0 |
| 20260509201606 | 16 | 159 | 0.0 | 0.0 | 0.00 | 1.96 | 1.96 | 86 | 1012.0 |
| 20260509201507 | 16 | 159 | 0.0 | 0.0 | 0.00 | 1.96 | 1.96 | 86 | 1012.1 |
| 20260509201406 | 16 | 159 | 0.0 | 0.0 | 0.00 | 1.96 | 1.96 | 86 | 1012.1 |
| 20260509201306 | 16 | 159 | 0.0 | 0.0 | 0.00 | 1.96 | 1.96 | 86 | 1012.1 |
| 20260509201206 | 16 | 159 | 0.0 | 0.0 | 0.00 | 1.96 | 1.96 | 86 | 1012.1 |
| 20260509201107 | 16 | 159 | 0.0 | 0.0 | 0.00 | 1.96 | 1.96 | 85 | 1012.1 |
| 20260509201009 | 16 | 159 | 0.0 | 0.0 | 0.00 | 1.96 | 1.96 | 85 | 1012.1 |
| 20260509200906 | 16 | 159 | 0.0 | 0.0 | 0.00 | 1.96 | 1.96 | 86 | 1012.0 |
| 20260509200706 | 16 | 159 | 0.0 | 0.0 | 0.00 | 1.96 | 1.96 | 86 | 1012.0 |
| 20260509200606 | 16 | 159 | 0.0 | 0.0 | 0.00 | 1.96 | 1.96 | 86 | 1012.0 |
| 20260509200406 | 16 | 159 | 0.0 | 0.0 | 0.00 | 1.96 | 1.96 | 86 | 1012.0 |
| 20260509200307 | 16 | 159 | 0.0 | 0.0 | 0.00 | 1.96 | 1.96 | 86 | 1011.9 |
| 20260509200206 | 16 | 159 | 0.0 | 0.0 | 0.00 | 1.96 | 1.96 | 86 | 1011.9 |
| 20260509200107 | 16 | 159 | 0.0 | 0.0 | 0.00 | 1.96 | 1.96 | 86 | 1012.0 |
| 20260509200011 | 16 | 159 | 0.0 | 0.0 | 0.00 | 1.96 | 1.96 | 86 | 1012.0 |
| 20260509195907 | 16 | 159 | 0.0 | 0.0 | 0.00 | 1.96 | 1.96 | 86 | 1011.9 |
| 20260509195808 | 16 | 159 | 0.0 | 0.0 | 0.00 | 1.96 | 1.96 | 85 | 1011.9 |
| 20260509195708 | 16 | 159 | 0.0 | 0.0 | 0.00 | 1.96 | 1.96 | 85 | 1011.9 |
| 20260509195608 | 16 | 159 | 0.0 | 0.0 | 0.00 | 1.96 | 1.96 | 85 | 1011.9 |
| 20260509195509 | 16 | 159 | 0.0 | 0.0 | 0.00 | 1.96 | 1.96 | 85 | 1011.9 |
| 20260509195408 | 16 | 159 | 0.0 | 0.0 | 0.00 | 1.96 | 1.96 | 85 | 1011.9 |
| 20260509195307 | 16 | 159 | 0.0 | 0.0 | 0.00 | 1.96 | 1.96 | 85 | 1011.8 |
| 20260509195109 | 16 | 159 | 0.0 | 0.0 | 0.00 | 1.96 | 1.96 | 85 | 1011.7 |
| 20260509195011 | 16 | 159 | 0.0 | 0.0 | 0.00 | 1.96 | 1.96 | 85 | 1011.8 |
| 20260509194807 | 16 | 159 | 0.0 | 0.0 | 0.00 | 1.96 | 1.96 | 85 | 1011.7 |
| 20260509194709 | 16 | 159 | 0.0 | 0.0 | 0.00 | 1.96 | 1.96 | 85 | 1011.7 |
| 20260509194408 | 16 | 159 | 0.0 | 0.0 | 0.00 | 1.96 | 1.96 | 85 | 1011.6 |
| 20260509194208 | 16 | 159 | 0.0 | 0.0 | 0.00 | 1.96 | 1.96 | 85 | 1011.6 |
| 20260509194107 | 16 | 159 | 0.0 | 0.0 | 0.00 | 1.96 | 1.96 | 85 | 1011.6 |
| 20260509194010 | 16 | 159 | 0.0 | 0.0 | 0.00 | 1.96 | 1.96 | 85 | 1011.7 |
| 20260509193907 | 16 | 159 | 0.0 | 0.0 | 0.00 | 1.96 | 1.96 | 85 | 1011.6 |
| 20260509193808 | 16 | 159 | 0.0 | 0.0 | 0.00 | 1.96 | 1.96 | 85 | 1011.6 |
| 20260509193608 | 16 | 159 | 0.0 | 1.6 | 0.00 | 1.96 | 1.96 | 85 | 1011.6 |
| 20260509193509 | 16 | 159 | 0.0 | 1.6 | 0.00 | 1.96 | 1.96 | 85 | 1011.6 |
| 20260509193407 | 16 | 159 | 0.0 | 1.6 | 0.00 | 1.96 | 1.96 | 85 | 1011.4 |
| 20260509193308 | 16 | 159 | 0.0 | 1.6 | 0.00 | 1.96 | 1.96 | 85 | 1011.4 |
| 20260509193011 | 16 | 159 | 0.0 | 1.6 | 0.00 | 1.96 | 1.96 | 85 | 1011.5 |
| 20260509192907 | 16 | 159 | 0.0 | 4.8 | 0.00 | 1.96 | 1.96 | 85 | 1011.4 |
| 20260509192708 | 16 | 159 | 0.0 | 4.8 | 0.00 | 1.96 | 1.96 | 85 | 1011.4 |
| 20260509192608 | 16 | 159 | 0.0 | 4.8 | 0.00 | 1.96 | 1.96 | 85 | 1011.3 |
| 20260509192509 | 16 | 159 | 0.0 | 4.8 | 0.00 | 1.96 | 1.96 | 85 | 1011.2 |
| 20260509192309 | 16 | 159 | 0.0 | 4.8 | 0.00 | 1.96 | 1.96 | 85 | 1011.3 |
| 20260509192207 | 16 | 159 | 1.6 | 4.8 | 0.00 | 1.96 | 1.96 | 85 | 1011.3 |
| 20260509192107 | 16 | 159 | 1.6 | 4.8 | 0.00 | 1.96 | 1.96 | 85 | 1011.3 |
| 20260509192009 | 16 | 202 | 1.6 | 4.8 | 0.00 | 1.96 | 1.96 | 84 | 1011.3 |
| 20260509191807 | 16 | 124 | 1.6 | 4.8 | 0.00 | 1.96 | 1.96 | 84 | 1011.2 |
| 20260509191708 | 16 | 124 | 1.6 | 4.8 | 0.00 | 1.96 | 1.96 | 84 | 1011.2 |
| 20260509191607 | 16 | 124 | 1.6 | 6.4 | 0.00 | 1.96 | 1.96 | 84 | 1011.2 |
| 20260509191509 | 16 | 124 | 3.2 | 6.4 | 0.00 | 1.96 | 1.96 | 84 | 1011.2 |
| 20260509191408 | 16 | 124 | 3.2 | 6.4 | 0.00 | 1.96 | 1.96 | 84 | 1011.2 |
| 20260509191308 | 16 | 175 | 3.2 | 6.4 | 0.00 | 1.96 | 1.96 | 84 | 1011.2 |
| 20260509191209 | 16 | 175 | 3.2 | 6.4 | 0.00 | 1.96 | 1.96 | 84 | 1011.2 |
| 20260509191107 | 16 | 175 | 3.2 | 6.4 | 0.00 | 1.96 | 1.96 | 84 | 1011.2 |
| 20260509191010 | 16 | 175 | 3.2 | 6.4 | 0.00 | 1.96 | 1.96 | 84 | 1011.2 |
| 20260509190908 | 16 | 174 | 3.2 | 6.4 | 0.00 | 1.96 | 1.96 | 84 | 1011.1 |
| 20260509190807 | 16 | 157 | 3.2 | 6.4 | 0.00 | 1.96 | 1.96 | 84 | 1011.1 |
| 20260509190608 | 16 | 136 | 1.6 | 6.4 | 0.00 | 1.96 | 1.96 | 84 | 1011.0 |
| 20260509190509 | 17 | 135 | 1.6 | 6.4 | 0.00 | 1.96 | 1.96 | 84 | 1010.9 |
| 20260509190411 | 17 | 135 | 1.6 | 6.4 | 0.00 | 1.96 | 1.96 | 84 | 1010.9 |
| 20260509190308 | 17 | 100 | 1.6 | 6.4 | 0.00 | 1.96 | 1.96 | 84 | 1010.9 |
| 20260509190207 | 16 | 100 | 1.6 | 6.4 | 0.00 | 1.96 | 1.96 | 84 | 1010.9 |
| 20260509190012 | 17 | 66 | 1.6 | 6.4 | 0.00 | 1.96 | 1.96 | 84 | 1010.8 |
| 20260509185906 | 17 | 66 | 3.2 | 6.4 | 0.00 | 1.96 | 1.96 | 84 | 1010.9 |
| 20260509185806 | 17 | 66 | 3.2 | 6.4 | 0.00 | 1.96 | 1.96 | 84 | 1010.9 |
| 20260509185706 | 17 | 66 | 1.6 | 6.4 | 0.00 | 1.96 | 1.96 | 84 | 1010.9 |
| 20260509185606 | 17 | 95 | 1.6 | 8.0 | 0.00 | 1.96 | 1.96 | 84 | 1010.9 |
| 20260509185508 | 17 | 91 | 1.6 | 6.4 | 0.00 | 1.96 | 1.96 | 84 | 1010.9 |
| 20260509185307 | 17 | 135 | 1.6 | 4.8 | 0.00 | 1.96 | 1.96 | 84 | 1010.9 |
| 20260509185206 | 17 | 135 | 1.6 | 6.4 | 0.00 | 1.96 | 1.96 | 84 | 1010.9 |
| 20260509185107 | 17 | 135 | 1.6 | 6.4 | 0.00 | 1.96 | 1.96 | 84 | 1011.0 |
| 20260509185008 | 17 | 135 | 1.6 | 6.4 | 0.00 | 1.96 | 1.96 | 84 | 1010.9 |
| 20260509184808 | 17 | 108 | 1.6 | 6.4 | 0.00 | 1.96 | 1.96 | 84 | 1011.0 |
| 20260509184706 | 17 | 108 | 1.6 | 6.4 | 0.00 | 1.96 | 1.96 | 84 | 1010.9 |
| 20260509184606 | 17 | 108 | 1.6 | 6.4 | 0.00 | 1.96 | 1.96 | 84 | 1010.9 |
| 20260509184508 | 17 | 108 | 1.6 | 6.4 | 0.00 | 1.96 | 1.96 | 84 | 1010.9 |
| 20260509184406 | 17 | 108 | 1.6 | 6.4 | 0.00 | 1.96 | 1.96 | 84 | 1010.9 |
| 20260509184307 | 17 | 99 | 1.6 | 6.4 | 0.00 | 1.96 | 1.96 | 84 | 1010.9 |
| 20260509184208 | 17 | 120 | 1.6 | 9.7 | 0.00 | 1.96 | 1.96 | 84 | 1010.9 |
| 20260509183906 | 17 | 147 | 1.6 | 9.7 | 0.00 | 1.96 | 1.96 | 84 | 1010.8 |
| 20260509183807 | 17 | 147 | 1.6 | 9.7 | 0.00 | 1.96 | 1.96 | 84 | 1010.9 |
| 20260509183707 | 17 | 147 | 1.6 | 9.7 | 0.00 | 1.96 | 1.96 | 84 | 1010.9 |
| 20260509183606 | 17 | 60 | 1.6 | 9.7 | 0.00 | 1.96 | 1.96 | 84 | 1010.9 |
| 20260509183406 | 17 | 60 | 1.6 | 9.7 | 0.00 | 1.96 | 1.96 | 84 | 1010.8 |
| 20260509183306 | 17 | 60 | 1.6 | 4.8 | 0.00 | 1.96 | 1.96 | 84 | 1010.7 |
| 20260509183206 | 17 | 73 | 1.6 | 4.8 | 0.00 | 1.96 | 1.96 | 84 | 1010.7 |
| 20260509183108 | 17 | 73 | 1.6 | 4.8 | 0.00 | 1.96 | 1.96 | 84 | 1010.7 |
| 20260509183008 | 17 | 141 | 3.2 | 4.8 | 0.00 | 1.96 | 1.96 | 84 | 1010.7 |
| 20260509182906 | 17 | 141 | 3.2 | 11.3 | 0.00 | 1.96 | 1.96 | 84 | 1010.7 |
| 20260509182806 | 17 | 141 | 3.2 | 14.5 | 0.00 | 1.96 | 1.96 | 84 | 1010.7 |
| 20260509182707 | 17 | 141 | 3.2 | 14.5 | 0.00 | 1.96 | 1.96 | 84 | 1010.7 |
| 20260509182606 | 17 | 141 | 4.8 | 14.5 | 0.00 | 1.96 | 1.96 | 84 | 1010.6 |
| 20260509182508 | 17 | 141 | 4.8 | 14.5 | 0.00 | 1.96 | 1.96 | 84 | 1010.5 |
| 20260509182407 | 17 | 141 | 4.8 | 14.5 | 0.00 | 1.96 | 1.96 | 84 | 1010.5 |
| 20260509182206 | 17 | 141 | 6.4 | 14.5 | 0.00 | 1.96 | 1.96 | 84 | 1010.4 |
| 20260509182107 | 17 | 31 | 6.4 | 14.5 | 0.00 | 1.96 | 1.96 | 84 | 1010.3 |
| 20260509182008 | 17 | 64 | 6.4 | 14.5 | 0.00 | 1.96 | 1.96 | 83 | 1010.3 |
| 20260509181906 | 17 | 57 | 6.4 | 12.9 | 0.00 | 1.96 | 1.96 | 83 | 1010.3 |
| 20260509181807 | 17 | 63 | 6.4 | 12.9 | 0.00 | 1.96 | 1.96 | 83 | 1010.4 |
| 20260509181606 | 17 | 48 | 6.4 | 12.9 | 0.00 | 1.96 | 1.96 | 83 | 1010.3 |
| 20260509181406 | 17 | 71 | 6.4 | 12.9 | 0.00 | 1.96 | 1.96 | 83 | 1010.4 |
| 20260509181307 | 17 | 108 | 8.0 | 12.9 | 0.00 | 1.96 | 1.96 | 83 | 1010.4 |
| 20260509181206 | 17 | 79 | 6.4 | 12.9 | 0.00 | 1.96 | 1.96 | 83 | 1010.3 |
| 20260509181107 | 17 | 73 | 6.4 | 12.9 | 0.00 | 1.96 | 1.96 | 83 | 1010.3 |
| 20260509181008 | 17 | 66 | 6.4 | 12.9 | 0.00 | 1.96 | 1.96 | 83 | 1010.4 |
| 20260509180906 | 17 | 65 | 6.4 | 12.9 | 0.00 | 1.96 | 1.96 | 83 | 1010.4 |
| 20260509180806 | 17 | 65 | 6.4 | 12.9 | 0.00 | 1.96 | 1.96 | 83 | 1010.3 |
| 20260509180706 | 17 | 57 | 4.8 | 12.9 | 0.00 | 1.96 | 1.96 | 83 | 1010.4 |
| 20260509180607 | 17 | 55 | 6.4 | 12.9 | 0.00 | 1.96 | 1.96 | 83 | 1010.4 |
| 20260509180508 | 17 | 108 | 6.4 | 12.9 | 0.00 | 1.96 | 1.96 | 83 | 1010.5 |
| 20260509180208 | 17 | 42 | 6.4 | 12.9 | 0.00 | 1.96 | 1.96 | 83 | 1010.4 |
| 20260509180107 | 17 | 66 | 6.4 | 12.9 | 0.00 | 1.96 | 1.96 | 83 | 1010.4 |
| 20260509175907 | 17 | 85 | 6.4 | 12.9 | 0.00 | 1.96 | 1.96 | 83 | 1010.2 |
| 20260509175809 | 17 | 62 | 6.4 | 12.9 | 0.00 | 1.96 | 1.96 | 83 | 1010.2 |
| 20260509175707 | 17 | 94 | 6.4 | 12.9 | 0.00 | 1.96 | 1.96 | 83 | 1010.2 |
| 20260509175608 | 17 | 58 | 6.4 | 12.9 | 0.00 | 1.96 | 1.96 | 83 | 1010.2 |
| 20260509175509 | 17 | 69 | 6.4 | 12.9 | 0.00 | 1.96 | 1.96 | 83 | 1010.3 |
| 20260509175308 | 17 | 70 | 4.8 | 12.9 | 0.00 | 1.96 | 1.96 | 83 | 1010.3 |
| 20260509175209 | 17 | 70 | 4.8 | 9.7 | 0.00 | 1.96 | 1.96 | 83 | 1010.3 |
| 20260509175107 | 17 | 72 | 4.8 | 11.3 | 0.00 | 1.96 | 1.96 | 83 | 1010.3 |
| 20260509175009 | 17 | 56 | 4.8 | 11.3 | 0.00 | 1.96 | 1.96 | 83 | 1010.3 |
| 20260509174608 | 17 | 58 | 6.4 | 11.3 | 0.00 | 1.96 | 1.96 | 82 | 1010.4 |
| 20260509174509 | 17 | 69 | 6.4 | 11.3 | 0.00 | 1.96 | 1.96 | 82 | 1010.3 |
| 20260509174408 | 17 | 37 | 4.8 | 8.0 | 0.00 | 1.96 | 1.96 | 82 | 1010.4 |
| 20260509174308 | 17 | 55 | 4.8 | 8.0 | 0.00 | 1.96 | 1.96 | 82 | 1010.4 |
| 20260509174208 | 17 | 42 | 4.8 | 8.0 | 0.00 | 1.96 | 1.96 | 82 | 1010.4 |
| 20260509174109 | 17 | 54 | 4.8 | 8.0 | 0.00 | 1.96 | 1.96 | 82 | 1010.4 |
| 20260509173907 | 17 | 23 | 3.2 | 9.7 | 0.00 | 1.96 | 1.96 | 82 | 1010.3 |
| 20260509173807 | 17 | 62 | 3.2 | 9.7 | 0.00 | 1.96 | 1.96 | 82 | 1010.4 |
| 20260509173708 | 17 | 49 | 3.2 | 9.7 | 0.00 | 1.96 | 1.96 | 83 | 1010.4 |
| 20260509173608 | 17 | 58 | 3.2 | 8.0 | 0.00 | 1.96 | 1.96 | 83 | 1010.4 |
| 20260509173308 | 17 | 76 | 1.6 | 6.4 | 0.00 | 1.96 | 1.96 | 83 | 1010.5 |
| 20260509173109 | 17 | 58 | 1.6 | 6.4 | 0.00 | 1.96 | 1.96 | 83 | 1010.4 |
| 20260509173009 | 17 | 58 | 3.2 | 6.4 | 0.00 | 1.96 | 1.96 | 83 | 1010.4 |
| 20260509172907 | 17 | 58 | 3.2 | 6.4 | 0.00 | 1.96 | 1.96 | 83 | 1010.4 |
| 20260509172809 | 17 | 58 | 3.2 | 6.4 | 0.00 | 1.96 | 1.96 | 83 | 1010.5 |
| 20260509172707 | 17 | 58 | 3.2 | 6.4 | 0.00 | 1.96 | 1.96 | 83 | 1010.4 |
| 20260509172607 | 17 | 64 | 3.2 | 6.4 | 0.00 | 1.96 | 1.96 | 83 | 1010.5 |
| 20260509172510 | 17 | 64 | 3.2 | 6.4 | 0.00 | 1.96 | 1.96 | 83 | 1010.5 |
| 20260509172408 | 17 | 64 | 3.2 | 6.4 | 0.00 | 1.96 | 1.96 | 82 | 1010.4 |
| 20260509172309 | 17 | 64 | 3.2 | 6.4 | 0.00 | 1.96 | 1.96 | 82 | 1010.4 |
| 20260509172207 | 17 | 95 | 3.2 | 6.4 | 0.00 | 1.96 | 1.96 | 82 | 1010.3 |
| 20260509172109 | 17 | 81 | 3.2 | 6.4 | 0.00 | 1.96 | 1.96 | 82 | 1010.4 |
| 20260509172009 | 17 | 78 | 3.2 | 9.7 | 0.00 | 1.96 | 1.96 | 82 | 1010.4 |
| 20260509171807 | 17 | 50 | 4.8 | 11.3 | 0.00 | 1.96 | 1.96 | 82 | 1010.4 |
| 20260509171708 | 17 | 50 | 4.8 | 11.3 | 0.00 | 1.96 | 1.96 | 82 | 1010.4 |
| 20260509171608 | 17 | 50 | 4.8 | 11.3 | 0.00 | 1.96 | 1.96 | 82 | 1010.4 |
| 20260509171408 | 17 | 41 | 4.8 | 11.3 | 0.00 | 1.96 | 1.96 | 82 | 1010.3 |
| 20260509171308 | 17 | 73 | 4.8 | 11.3 | 0.00 | 1.96 | 1.96 | 82 | 1010.3 |
| 20260509171207 | 17 | 73 | 4.8 | 11.3 | 0.00 | 1.96 | 1.96 | 82 | 1010.3 |
| 20260509171107 | 17 | 41 | 4.8 | 11.3 | 0.00 | 1.96 | 1.96 | 82 | 1010.3 |
| 20260509171009 | 17 | 50 | 4.8 | 11.3 | 0.00 | 1.96 | 1.96 | 81 | 1010.3 |
| 20260509170909 | 17 | 64 | 3.2 | 11.3 | 0.00 | 1.96 | 1.96 | 82 | 1010.3 |
| 20260509170808 | 17 | 58 | 4.8 | 11.3 | 0.00 | 1.96 | 1.96 | 82 | 1010.4 |
| 20260509170609 | 17 | 153 | 4.8 | 12.9 | 0.00 | 1.96 | 1.96 | 82 | 1010.3 |
| 20260509170509 | 17 | 80 | 4.8 | 12.9 | 0.00 | 1.96 | 1.96 | 81 | 1010.3 |
| 20260509170309 | 17 | 89 | 4.8 | 12.9 | 0.00 | 1.96 | 1.96 | 81 | 1010.2 |
| 20260509170207 | 17 | 53 | 4.8 | 12.9 | 0.00 | 1.96 | 1.96 | 82 | 1010.2 |
| 20260509170107 | 17 | 52 | 4.8 | 12.9 | 0.00 | 1.96 | 1.96 | 81 | 1010.2 |
| 20260509165906 | 17 | 73 | 4.8 | 12.9 | 0.00 | 1.96 | 1.96 | 81 | 1010.2 |
| 20260509165708 | 17 | 33 | 3.2 | 9.7 | 0.00 | 1.96 | 1.96 | 81 | 1010.1 |
| 20260509165606 | 17 | 85 | 3.2 | 9.7 | 0.00 | 1.96 | 1.96 | 81 | 1010.1 |
| 20260509165509 | 17 | 73 | 3.2 | 9.7 | 0.00 | 1.96 | 1.96 | 81 | 1010.1 |
| 20260509165407 | 17 | 38 | 3.2 | 9.7 | 0.00 | 1.96 | 1.96 | 81 | 1010.2 |
| 20260509165307 | 17 | 81 | 1.6 | 9.7 | 0.00 | 1.96 | 1.96 | 81 | 1010.1 |
| 20260509165206 | 17 | 49 | 3.2 | 8.0 | 0.00 | 1.96 | 1.96 | 81 | 1010.1 |
| 20260509165107 | 17 | 49 | 1.6 | 8.0 | 0.00 | 1.96 | 1.96 | 81 | 1010.1 |
| 20260509165010 | 17 | 78 | 1.6 | 8.0 | 0.00 | 1.96 | 1.96 | 81 | 1010.1 |
| 20260509164807 | 17 | 59 | 1.6 | 8.0 | 0.00 | 1.96 | 1.96 | 82 | 1010.1 |
| 20260509164706 | 17 | 352 | 3.2 | 8.0 | 0.00 | 1.96 | 1.96 | 82 | 1010.1 |
| 20260509164607 | 17 | 352 | 3.2 | 8.0 | 0.00 | 1.96 | 1.96 | 82 | 1010.1 |
| 20260509164508 | 17 | 352 | 3.2 | 8.0 | 0.00 | 1.96 | 1.96 | 81 | 1010.2 |
| 20260509164406 | 17 | 352 | 3.2 | 8.0 | 0.00 | 1.96 | 1.96 | 81 | 1010.1 |
| 20260509164306 | 17 | 346 | 3.2 | 8.0 | 0.00 | 1.96 | 1.96 | 81 | 1010.0 |
| 20260509164207 | 17 | 74 | 3.2 | 8.0 | 0.00 | 1.96 | 1.96 | 81 | 1010.1 |
| 20260509164107 | 17 | 63 | 3.2 | 8.0 | 0.00 | 1.96 | 1.96 | 81 | 1010.1 |
| 20260509164008 | 17 | 357 | 3.2 | 12.9 | 0.00 | 1.96 | 1.96 | 81 | 1010.1 |
| 20260509163907 | 17 | 25 | 3.2 | 12.9 | 0.00 | 1.96 | 1.96 | 81 | 1010.1 |
| 20260509163806 | 17 | 92 | 4.8 | 12.9 | 0.00 | 1.96 | 1.96 | 82 | 1010.1 |
| 20260509163707 | 17 | 50 | 4.8 | 12.9 | 0.00 | 1.96 | 1.96 | 82 | 1010.1 |
| 20260509163607 | 17 | 58 | 4.8 | 12.9 | 0.00 | 1.96 | 1.96 | 82 | 1010.1 |
| 20260509163509 | 17 | 339 | 4.8 | 12.9 | 0.00 | 1.96 | 1.96 | 82 | 1010.1 |
| 20260509163408 | 17 | 339 | 6.4 | 12.9 | 0.00 | 1.96 | 1.96 | 82 | 1010.2 |
| 20260509163306 | 17 | 356 | 6.4 | 12.9 | 0.00 | 1.96 | 1.96 | 82 | 1010.1 |
| 20260509163207 | 17 | 78 | 6.4 | 12.9 | 0.00 | 1.96 | 1.96 | 82 | 1010.1 |
| 20260509163106 | 17 | 11 | 6.4 | 12.9 | 0.00 | 1.96 | 1.96 | 82 | 1010.1 |
| 20260509163008 | 17 | 29 | 6.4 | 12.9 | 0.00 | 1.96 | 1.96 | 82 | 1010.0 |
| 20260509162806 | 17 | 22 | 6.4 | 12.9 | 0.00 | 1.96 | 1.96 | 82 | 1010.0 |
| 20260509162706 | 17 | 57 | 4.8 | 9.7 | 0.00 | 1.96 | 1.96 | 82 | 1009.9 |
| 20260509162607 | 17 | 29 | 6.4 | 11.3 | 0.00 | 1.96 | 1.96 | 82 | 1010.0 |
| 20260509162509 | 17 | 27 | 6.4 | 16.1 | 0.00 | 1.96 | 1.96 | 82 | 1010.0 |
| 20260509162406 | 17 | 37 | 4.8 | 16.1 | 0.00 | 1.96 | 1.96 | 82 | 1010.0 |
| 20260509162307 | 17 | 37 | 6.4 | 16.1 | 0.00 | 1.96 | 1.96 | 82 | 1010.1 |
| 20260509162008 | 17 | 46 | 4.8 | 16.1 | 0.00 | 1.96 | 1.96 | 82 | 1010.0 |
| 20260509161808 | 17 | 61 | 6.4 | 16.1 | 0.00 | 1.96 | 1.96 | 82 | 1010.0 |
| 20260509161606 | 17 | 77 | 4.8 | 16.1 | 0.00 | 1.96 | 1.96 | 82 | 1010.0 |
| 20260509161510 | 17 | 61 | 4.8 | 14.5 | 0.00 | 1.96 | 1.96 | 82 | 1010.0 |
| 20260509161407 | 17 | 185 | 4.8 | 14.5 | 0.00 | 1.96 | 1.96 | 82 | 1010.1 |
| 20260509161306 | 17 | 39 | 4.8 | 14.5 | 0.00 | 1.96 | 1.96 | 82 | 1010.1 |
| 20260509161206 | 17 | 152 | 4.8 | 16.1 | 0.00 | 1.96 | 1.96 | 82 | 1010.0 |
| 20260509161106 | 17 | 16 | 6.4 | 16.1 | 0.00 | 1.96 | 1.96 | 82 | 1010.1 |
| 20260509161011 | 17 | 52 | 6.4 | 16.1 | 0.00 | 1.96 | 1.96 | 82 | 1010.0 |
| 20260509160906 | 17 | 70 | 6.4 | 16.1 | 0.00 | 1.96 | 1.96 | 82 | 1010.0 |
| 20260509160808 | 17 | 335 | 6.4 | 17.7 | 0.00 | 1.96 | 1.96 | 82 | 1009.9 |
| 20260509160708 | 17 | 10 | 6.4 | 17.7 | 0.00 | 1.96 | 1.96 | 82 | 1009.9 |
| 20260509160607 | 17 | 162 | 6.4 | 17.7 | 0.00 | 1.96 | 1.96 | 82 | 1010.0 |
| 20260509160406 | 17 | 47 | 6.4 | 17.7 | 0.00 | 1.96 | 1.96 | 82 | 1010.0 |
| 20260509160207 | 17 | 54 | 6.4 | 17.7 | 0.00 | 1.96 | 1.96 | 82 | 1010.1 |
| 20260509160011 | 17 | 29 | 6.4 | 17.7 | 0.00 | 1.96 | 1.96 | 82 | 1010.0 |
| 20260509155907 | 17 | 48 | 4.8 | 11.3 | 0.00 | 1.96 | 1.96 | 82 | 1010.0 |
| 20260509155607 | 17 | 63 | 4.8 | 11.3 | 0.00 | 1.96 | 1.96 | 82 | 1010.1 |
| 20260509155509 | 17 | 48 | 4.8 | 11.3 | 0.00 | 1.96 | 1.96 | 82 | 1010.0 |
| 20260509155407 | 17 | 44 | 4.8 | 11.3 | 0.00 | 1.96 | 1.96 | 82 | 1010.1 |
| 20260509155306 | 17 | 32 | 3.2 | 12.9 | 0.00 | 1.96 | 1.96 | 82 | 1010.2 |
| 20260509155207 | 17 | 60 | 3.2 | 12.9 | 0.00 | 1.96 | 1.96 | 83 | 1010.2 |
| 20260509155106 | 17 | 335 | 3.2 | 8.0 | 0.00 | 1.96 | 1.96 | 83 | 1010.2 |
| 20260509155010 | 17 | 42 | 3.2 | 8.0 | 0.00 | 1.96 | 1.96 | 83 | 1010.2 |
| 20260509154907 | 17 | 335 | 3.2 | 9.7 | 0.00 | 1.96 | 1.96 | 83 | 1010.2 |
| 20260509154807 | 17 | 46 | 3.2 | 9.7 | 0.00 | 1.96 | 1.96 | 83 | 1010.3 |
| 20260509154608 | 17 | 102 | 4.8 | 11.3 | 0.00 | 1.96 | 1.96 | 83 | 1010.2 |
| 20260509154508 | 17 | 142 | 4.8 | 14.5 | 0.00 | 1.96 | 1.96 | 83 | 1010.2 |
| 20260509154306 | 17 | 264 | 4.8 | 14.5 | 0.00 | 1.96 | 1.96 | 83 | 1010.2 |
| 20260509154009 | 17 | 49 | 6.4 | 16.1 | 0.00 | 1.96 | 1.96 | 83 | 1010.2 |
| 20260509153906 | 17 | 16 | 6.4 | 16.1 | 0.00 | 1.96 | 1.96 | 83 | 1010.1 |
| 20260509153807 | 17 | 16 | 4.8 | 16.1 | 0.00 | 1.96 | 1.96 | 83 | 1010.2 |
| 20260509153706 | 17 | 48 | 4.8 | 16.1 | 0.00 | 1.96 | 1.96 | 83 | 1010.1 |
| 20260509153606 | 17 | 351 | 4.8 | 16.1 | 0.00 | 1.96 | 1.96 | 83 | 1010.1 |
| 20260509153509 | 17 | 83 | 4.8 | 16.1 | 0.00 | 1.96 | 1.96 | 83 | 1010.1 |
| 20260509153406 | 17 | 5 | 4.8 | 16.1 | 0.00 | 1.96 | 1.96 | 83 | 1010.1 |
| 20260509153306 | 17 | 43 | 3.2 | 16.1 | 0.00 | 1.96 | 1.96 | 83 | 1010.0 |
| 20260509153207 | 17 | 43 | 3.2 | 16.1 | 0.00 | 1.96 | 1.96 | 83 | 1010.0 |
| 20260509153107 | 17 | 53 | 3.2 | 11.3 | 0.00 | 1.96 | 1.96 | 83 | 1010.0 |
| 20260509153008 | 17 | 69 | 3.2 | 16.1 | 0.00 | 1.96 | 1.96 | 84 | 1010.0 |
| 20260509152907 | 17 | 45 | 3.2 | 16.1 | 0.00 | 1.96 | 1.96 | 84 | 1010.0 |
| 20260509152807 | 17 | 68 | 3.2 | 16.1 | 0.00 | 1.96 | 1.96 | 84 | 1010.0 |
| 20260509152408 | 17 | 77 | 3.2 | 16.1 | 0.00 | 1.96 | 1.96 | 83 | 1009.9 |
| 20260509152309 | 17 | 330 | 3.2 | 16.1 | 0.00 | 1.96 | 1.96 | 83 | 1009.9 |
| 20260509152207 | 17 | 13 | 3.2 | 16.1 | 0.00 | 1.96 | 1.96 | 83 | 1009.8 |
| 20260509152107 | 17 | 53 | 3.2 | 14.5 | 0.00 | 1.96 | 1.96 | 83 | 1009.9 |
| 20260509152008 | 17 | 351 | 3.2 | 8.0 | 0.00 | 1.96 | 1.96 | 84 | 1009.8 |
| 20260509151908 | 17 | 351 | 1.6 | 8.0 | 0.00 | 1.96 | 1.96 | 84 | 1009.8 |
| 20260509151706 | 17 | 321 | 1.6 | 6.4 | 0.00 | 1.96 | 1.96 | 84 | 1009.8 |
| 20260509151608 | 17 | 325 | 3.2 | 6.4 | 0.00 | 1.96 | 1.96 | 84 | 1009.8 |
| 20260509151509 | 17 | 307 | 3.2 | 9.7 | 0.00 | 1.96 | 1.96 | 84 | 1009.8 |
| 20260509151407 | 17 | 27 | 3.2 | 9.7 | 0.00 | 1.96 | 1.96 | 84 | 1009.8 |
| 20260509151307 | 17 | 27 | 3.2 | 9.7 | 0.00 | 1.96 | 1.96 | 84 | 1009.9 |
| 20260509151207 | 17 | 61 | 3.2 | 9.7 | 0.00 | 1.96 | 1.96 | 84 | 1009.8 |
| 20260509151106 | 17 | 325 | 3.2 | 9.7 | 0.00 | 1.96 | 1.96 | 84 | 1009.7 |
| 20260509150907 | 17 | 59 | 3.2 | 9.7 | 0.00 | 1.96 | 1.96 | 84 | 1009.9 |
| 20260509150708 | 17 | 339 | 3.2 | 9.7 | 0.00 | 1.96 | 1.96 | 83 | 1010.0 |
| 20260509150606 | 17 | 48 | 3.2 | 11.3 | 0.00 | 1.96 | 1.96 | 84 | 1010.0 |
| 20260509150509 | 17 | 50 | 3.2 | 9.7 | 0.00 | 1.96 | 1.96 | 84 | 1009.9 |
| 20260509150407 | 17 | 12 | 3.2 | 9.7 | 0.00 | 1.96 | 1.96 | 84 | 1010.0 |
| 20260509150307 | 17 | 358 | 3.2 | 9.7 | 0.00 | 1.96 | 1.96 | 84 | 1010.0 |
| 20260509150207 | 17 | 2 | 3.2 | 9.7 | 0.00 | 1.96 | 1.96 | 84 | 1010.0 |
| 20260509150107 | 17 | 353 | 3.2 | 9.7 | 0.00 | 1.96 | 1.96 | 84 | 1010.0 |
| 20260509145906 | 17 | 346 | 3.2 | 9.7 | 0.00 | 1.96 | 1.96 | 84 | 1010.0 |
| 20260509145806 | 17 | 325 | 3.2 | 9.7 | 0.00 | 1.96 | 1.96 | 84 | 1010.0 |
| 20260509145706 | 17 | 335 | 3.2 | 9.7 | 0.00 | 1.96 | 1.96 | 84 | 1010.0 |
| 20260509145609 | 17 | 226 | 3.2 | 9.7 | 0.00 | 1.96 | 1.96 | 84 | 1010.0 |
| 20260509145508 | 17 | 46 | 3.2 | 9.7 | 0.00 | 1.96 | 1.96 | 84 | 1009.9 |
| 20260509145406 | 17 | 280 | 3.2 | 8.0 | 0.00 | 1.96 | 1.96 | 85 | 1009.9 |
| 20260509145206 | 17 | 341 | 3.2 | 8.0 | 0.00 | 1.96 | 1.96 | 85 | 1009.9 |
| 20260509145106 | 17 | 231 | 3.2 | 8.0 | 0.00 | 1.96 | 1.96 | 85 | 1009.9 |
| 20260509144907 | 17 | 75 | 3.2 | 8.0 | 0.00 | 1.96 | 1.96 | 85 | 1009.9 |
| 20260509144807 | 17 | 312 | 3.2 | 8.0 | 0.00 | 1.96 | 1.96 | 85 | 1009.9 |
| 20260509144706 | 17 | 312 | 3.2 | 8.0 | 0.00 | 1.96 | 1.96 | 85 | 1009.9 |
| 20260509144606 | 17 | 58 | 3.2 | 8.0 | 0.00 | 1.96 | 1.96 | 85 | 1009.9 |
| 20260509144509 | 17 | 58 | 3.2 | 8.0 | 0.00 | 1.96 | 1.96 | 85 | 1009.9 |
| 20260509144407 | 17 | 31 | 3.2 | 8.0 | 0.00 | 1.96 | 1.96 | 85 | 1009.8 |
| 20260509144306 | 17 | 39 | 3.2 | 9.7 | 0.00 | 1.96 | 1.96 | 86 | 1009.9 |
| 20260509144106 | 17 | 117 | 3.2 | 9.7 | 0.00 | 1.96 | 1.96 | 86 | 1009.9 |
| 20260509144009 | 17 | 70 | 3.2 | 9.7 | 0.00 | 1.96 | 1.96 | 87 | 1009.9 |
| 20260509143908 | 17 | 313 | 3.2 | 9.7 | 0.00 | 1.96 | 1.96 | 87 | 1009.9 |
| 20260509143806 | 17 | 253 | 3.2 | 9.7 | 0.00 | 1.96 | 1.96 | 87 | 1009.9 |
| 20260509143706 | 17 | 253 | 3.2 | 9.7 | 0.03 | 1.96 | 1.96 | 87 | 1009.9 |
| 20260509143606 | 17 | 249 | 3.2 | 9.7 | 0.03 | 1.96 | 1.96 | 88 | 1010.0 |
| 20260509143511 | 17 | 317 | 3.2 | 9.7 | 0.03 | 1.96 | 1.96 | 88 | 1010.0 |
| 20260509143407 | 17 | 321 | 3.2 | 9.7 | 0.03 | 1.96 | 1.96 | 88 | 1010.0 |
| 20260509143307 | 17 | 231 | 3.2 | 9.7 | 0.03 | 1.96 | 1.96 | 88 | 1010.0 |
| 20260509143207 | 17 | 268 | 3.2 | 6.4 | 0.03 | 1.96 | 1.96 | 88 | 1009.9 |
| 20260509143108 | 17 | 229 | 3.2 | 6.4 | 0.03 | 1.96 | 1.96 | 89 | 1010.0 |
| 20260509143008 | 17 | 260 | 3.2 | 6.4 | 0.03 | 1.96 | 1.96 | 88 | 1009.9 |
| 20260509142906 | 17 | 196 | 3.2 | 9.7 | 0.03 | 1.96 | 1.96 | 89 | 1010.0 |
| 20260509142807 | 17 | 238 | 3.2 | 9.7 | 0.03 | 1.96 | 1.96 | 89 | 1010.0 |
| 20260509142708 | 17 | 217 | 3.2 | 9.7 | 0.03 | 1.96 | 1.96 | 89 | 1010.0 |
| 20260509142606 | 17 | 356 | 3.2 | 9.7 | 0.03 | 1.96 | 1.96 | 89 | 1010.0 |
| 20260509142508 | 17 | 249 | 4.8 | 9.7 | 0.03 | 1.96 | 1.96 | 89 | 1010.0 |
| 20260509142307 | 17 | 249 | 4.8 | 9.7 | 0.03 | 1.96 | 1.96 | 89 | 1010.0 |
| 20260509142106 | 17 | 307 | 4.8 | 9.7 | 0.03 | 1.96 | 1.96 | 90 | 1010.1 |
| 20260509142009 | 17 | 259 | 4.8 | 9.7 | 0.03 | 1.96 | 1.96 | 90 | 1010.1 |
| 20260509141906 | 16 | 259 | 4.8 | 9.7 | 0.03 | 1.96 | 1.96 | 90 | 1010.1 |
| 20260509141806 | 16 | 259 | 3.2 | 9.7 | 0.05 | 1.96 | 1.96 | 90 | 1010.1 |
| 20260509141706 | 16 | 241 | 3.2 | 8.0 | 0.05 | 1.96 | 1.96 | 90 | 1010.1 |
| 20260509141609 | 16 | 244 | 3.2 | 8.0 | 0.05 | 1.96 | 1.96 | 90 | 1010.1 |
| 20260509141508 | 16 | 335 | 1.6 | 8.0 | 0.05 | 1.96 | 1.96 | 91 | 1010.1 |
| 20260509141307 | 16 | 277 | 1.6 | 4.8 | 0.05 | 1.96 | 1.96 | 91 | 1010.1 |
| 20260509141206 | 16 | 359 | 1.6 | 4.8 | 0.05 | 1.96 | 1.96 | 91 | 1010.1 |
| 20260509141108 | 16 | 251 | 1.6 | 4.8 | 0.05 | 1.96 | 1.96 | 91 | 1010.1 |
| 20260509141009 | 16 | 23 | 1.6 | 4.8 | 0.05 | 1.96 | 1.96 | 91 | 1010.1 |
| 20260509140906 | 16 | 303 | 1.6 | 4.8 | 0.05 | 1.96 | 1.96 | 91 | 1010.0 |
| 20260509140806 | 16 | 325 | 1.6 | 4.8 | 0.05 | 1.96 | 1.96 | 91 | 1009.9 |
| 20260509140707 | 16 | 29 | 1.6 | 4.8 | 0.05 | 1.96 | 1.96 | 92 | 1010.0 |
| 20260509140608 | 16 | 29 | 1.6 | 3.2 | 0.05 | 1.96 | 1.96 | 92 | 1010.0 |